[{"header": {"dx": 0.06612293990616946, "dy": 0.0552356325346848, "nx": 98, "ny": 59, "la1": 35.046912555036876, "la2": 31.78801023549047, "lo1": -121.43107172385933, "lo2": -114.95102361305473, "refTime": "2026042017", "parameterCategory": 1, "parameterNumber": 2}, "data": [-2.4, -2.26, -2.26, -2.26, -2.29, -2.14, -2.32, -2.82, -3.08, -1.73, -0.0, -0.0, -0.0, -0.0, -0.0, 1.08, 1.05, 1.14, 1.63, 2.66, 3.91, 5.03, 5.06, 5.58, 5.58, 5.51, 4.02, 3.13, 2.8, 2.53, 0.0, 0.0, 0.0, 0.0, 0.0, 0.98, 2.0, 2.0, 2.95, 3.58, 2.97, 2.23, 1.55, 1.7, 3.22, 2.76, 2.6, 2.8, 2.64, 3.33, 3.33, 4.58, 4.29, 3.47, 3.91, 3.91, 4.89, 4.89, 4.98, 4.98, 4.82, 3.39, 2.68, 3.13, 4.47, 5.36, 6.26, 6.71, 6.71, 7.15, 7.15, 6.26, 6.26, 6.26, 6.2, 6.64, 7.1, 6.26, 6.26, 5.36, 4.34, 3.39, 2.8, 1.9, 1.79, 1.79, 2.68, 3.13, 2.53, 1.08, -0.0, -0.0, -0.0, -0.0, -0.0, -0.96, -2.99, -3.91, -2.23, -2.26, -2.26, -2.26, -2.29, -1.76, -1.65, -2.16, -2.36, -1.7, -0.55, -0.0, -0.0, -0.0, -0.0, -0.0, 0.96, 1.63, 1.32, 1.98, 2.99, 4.37, 5.31, 5.31, 4.74, 4.54, 2.97, 1.58, 1.2, 2.4, 1.9, 0.0, 0.0, 0.0, 0.0, 0.0, 0.0, 0.0, 0.96, 2.24, -0.0, -0.0, -0.0, 0.96, 2.76, 3.63, 3.47, 3.47, 3.72, 3.72, 4.29, 4.29, 4.74, 4.11, 3.79, 4.54, 4.89, 5.6, 5.2, 5.51, 4.38, 2.68, 1.79, 2.68, 3.58, 4.47, 5.36, 5.81, 6.26, 7.15, 7.15, 6.71, 6.26, 5.81, 5.81, 5.81, 6.26, 6.26, 6.26, 5.36, 4.34, 3.39, 2.8, 1.9, 1.79, 1.79, 2.68, 3.13, 2.53, 1.08, -0.0, -0.0, -0.0, -0.0, -0.0, -0.96, -2.99, -3.91, -2.23, -2.4, -2.26, -2.26, -2.12, -1.76, -1.65, -1.65, -1.67, -1.7, -0.54, 0.55, 1.05, -0.0, -0.0, -0.0, -0.0, -0.0, 1.03, 1.49, 2.64, 2.82, 4.14, 4.96, 4.96, 3.91, 2.4, 0.0, 0.0, 1.9, 2.0, 3.16, 3.58, 2.0, 0.0, 0.0, -1.99, -1.05, 0.0, -1.05, -0.74, -0.0, 0.88, 1.83, 2.95, 2.95, 2.76, 2.99, 3.63, 4.43, 4.43, 4.89, 4.89, 4.54, 3.84, 4.6, 5.2, 5.6, 5.51, 5.51, 4.34, 2.68, 1.79, 2.24, 2.8, 3.39, 4.47, 5.81, 6.26, 7.15, 7.6, 7.15, 6.64, 5.73, 5.29, 5.26, 5.29, 5.81, 4.47, 3.82, 2.53, 2.53, 1.4, 0.0, 0.0, 0.0, 1.9, 2.8, 2.4, -0.0, -0.0, -0.0, -0.0, -0.0, -0.0, -0.96, -2.76, -3.91, -1.71, -2.23, -2.26, -2.26, -1.63, -1.76, -1.65, -1.65, -1.65, -1.14, -0.0, 0.57, 1.05, -0.0, -0.0, -0.0, -0.0, -0.0, 0.96, 1.72, 1.84, 2.66, 3.2, 4.58, 4.42, 4.56, 2.23, 1.79, 1.79, 1.08, 1.84, 1.72, 2.8, 3.22, 3.58, 2.68, 0.0, 0.0, -2.0, -1.65, -0.0, 0.96, 1.99, 2.68, 2.23, 2.23, 2.2, 3.22, 4.11, 4.54, 4.19, 4.6, 4.6, 3.93, 4.98, 4.57, 5.09, 5.51, 5.51, 4.82, 3.9, 2.68, 1.79, 1.9, 2.8, 3.39, 4.34, 5.36, 6.26, 7.15, 7.42, 6.7, 5.2, 3.83, 3.58, 4.4, 4.0, 3.13, 2.68, 0.0, 0.0, 0.0, 0.0, -1.13, 0.0, 0.0, 1.13, 2.24, -0.0, -0.0, -0.0, -1.08, -0.0, -0.0, -0.0, -0.0, -3.22, -3.91, -1.71, -1.71, -1.73, -1.73, -1.73, -1.76, -1.76, -1.65, -1.65, -1.12, -0.0, 0.57, 0.88, -0.0, -0.0, -0.0, -0.0, -0.0, -0.0, -0.0, 1.25, 1.32, 1.32, 2.99, 2.64, 1.49, 1.4, 1.52, 1.52, 0.96, 0.96, 1.7, 1.84, 0.89, 1.4, 1.63, 3.47, 1.7, -1.98, -1.84, -0.0, 1.84, 2.6, 2.95, 2.0, 1.83, 2.99, 3.91, 4.89, 4.98, 4.98, 4.4, 4.0, 4.0, 4.57, 5.26, 5.26, 5.26, 4.82, 3.9, 2.68, 1.79, 2.24, 2.4, 3.39, 3.9, 4.34, 4.92, 6.2, 6.71, 4.98, 2.0, 0.0, 0.0, 2.23, 2.84, 3.72, 2.8, 0.0, -1.58, -0.85, -0.98, -1.08, -0.96, 0.0, 0.0, 1.79, -1.27, -1.83, -0.96, -0.0, -1.08, -1.08, -0.0, -0.0, -1.27, -2.76, -3.47, -1.71, -1.71, -1.73, -1.73, -1.73, -1.63, -1.76, -1.65, -1.65, -1.12, -0.0, 0.54, 1.08, -0.0, -0.0, -0.0, -0.0, -0.0, -0.0, -0.0, -0.0, -0.0, -0.0, -0.0, -0.0, -0.0, -0.0, -0.0, 1.32, 2.69, 1.84, 1.99, 0.96, 0.88, 0.88, 1.6, 3.72, 2.76, -1.83, -3.55, -0.89, 1.32, 2.51, 2.64, 2.8, 2.82, 4.42, 5.06, 5.15, 4.98, 4.57, 4.0, 3.82, 3.82, 4.34, 4.82, 4.38, 4.34, 4.34, 3.13, 1.79, 1.79, 2.68, 3.58, 4.47, 4.92, 4.47, 4.47, 5.73, 4.98, -0.0, -3.9, -3.16, -2.23, -1.13, 0.0, 1.13, 1.4, 0.0, -1.4, -1.13, -1.08, -1.99, -1.84, 0.0, 1.34, -1.05, -0.89, -0.96, -1.05, -0.0, -0.0, -0.0, 1.4, -0.0, -2.0, -3.91, -2.8, -1.71, -1.61, -1.73, -1.73, -1.63, -1.76, -1.76, -1.65, -1.65, -1.65, -0.57, 0.58, 0.96, -0.0, -0.0, -0.0, -0.0, -0.0, -0.0, -0.0, -0.0, -0.0, -0.0, -0.0, -0.0, -0.0, -0.0, -0.0, 2.99, 3.55, 2.82, 0.82, -0.0, -0.0, -0.0, 0.82, 2.8, 4.29, -0.0, -2.82, -2.54, -0.0, 1.25, 2.54, 3.8, 4.5, 4.96, 6.01, 5.15, 5.01, 5.2, 4.0, 3.39, 3.13, 3.13, 3.58, 3.58, 3.58, 3.13, 2.24, 1.34, 1.79, 3.58, 4.47, 5.29, 5.51, 5.29, 4.47, 4.47, 3.35, -0.0, -3.48, -4.57, -4.77, -4.47, -3.35, -1.13, 0.0, 0.0, 0.0, 0.0, 0.0, -1.98, -1.98, -1.4, -0.79, -0.96, -0.88, -0.96, -0.96, -0.0, 0.88, 2.0, 3.35, 1.13, -1.99, -3.47, -2.8, -1.71, -1.61, -1.73, -1.73, -1.63, -1.76, -1.65, -1.65, -1.65, -1.65, -1.65, -0.53, -0.0, -0.0, -0.0, -0.0, -0.0, -0.0, -0.0, -0.0, -0.0, -0.0, -0.89, -0.0, -0.0, -1.52, -0.0, 1.52, 3.2, 3.2, -0.0, -0.0, -0.0, -0.0, 0.88, 0.81, 1.83, 2.99, 1.4, -0.0, -1.4, -0.0, -0.0, 1.63, 2.66, 4.37, 5.1, 5.89, 5.24, 5.37, 4.89, 4.98, 3.58, 2.24, 2.24, 2.24, 2.24, 2.24, 1.79, 1.34, 1.34, 2.24, 4.02, 4.98, 5.2, 6.16, 6.02, 4.82, 4.02, 3.39, -0.0, -1.99, -3.91, -4.54, -4.82, -4.02, -3.16, -2.48, -1.27, -1.27, 0.0, 0.0, 0.0, -0.98, -2.6, -2.53, -0.79, -0.0, -0.0, -0.0, 0.98, 2.41, 4.29, 3.93, -0.0, -2.8, -2.8, -2.8, -1.16, -1.73, -1.73, -1.73, -1.63, -1.76, -1.65, -1.65, -1.8, -1.67, -2.32, -1.67, -1.32, -0.0, -0.0, -1.03, -0.95, -0.95, -0.0, -0.0, -0.0, -1.63, -1.98, -0.95, -1.03, -1.41, -0.0, 1.84, 1.52, -0.0, -1.63, -1.63, -0.0, -0.0, 1.99, 2.0, -0.0, -0.0, -0.0, -0.0, -1.52, -0.0, -0.0, -0.0, 3.22, 2.99, 4.56, 5.59, 6.32, 6.45, 6.9, 5.29, 3.13, 1.34, 1.34, 1.34, 0.0, 0.0, 0.0, 0.0, 1.58, 2.68, 4.0, 5.2, 6.02, 6.2, 6.2, 4.92, 3.58, 3.13, 2.24, -2.21, -3.93, -4.15, -3.9, -3.9, -4.02, -4.02, -3.9, -2.84, -2.0, 0.88, 1.66, 1.9, -0.0, -1.13, -0.99, -0.0, -0.0, 0.99, 2.53, 3.58, 3.58, 2.95, -0.0, -2.8, -2.8, -1.98, -1.09, -1.18, -1.73, -1.63, -1.76, -1.76, -1.65, -1.8, -1.67, -1.67, -2.36, -2.4, -1.73, -0.55, -0.0, -1.03, -1.03, -1.03, -1.63, -0.0, -1.4, -1.4, -1.4, -1.4, -1.63, -0.0, -0.0, -0.0, -0.0, -1.98, -3.47, -1.84, -0.0, -0.0, 1.41, -0.0, -0.0, -0.96, -0.0, -0.0, -0.98, -0.0, -0.0, 1.13, 2.23, 3.48, 4.98, 6.16, 7.2, 7.76, 7.53, 5.81, 1.4, 0.0, -1.2, -1.4, -2.21, -1.9, -1.2, 0.0, 1.79, 2.23, 3.76, 5.15, 6.51, 6.71, 6.2, 4.02, 2.68, 3.13, 1.79, -2.24, -3.58, -3.58, -3.47, -3.6, -3.48, -3.93, -4.38, -3.74, -2.68, 0.0, 3.07, 4.15, 3.58, 1.9, 1.0, 1.0, 1.0, 1.9, 2.6, 2.53, 2.68, 0.96, -0.88, -2.8, -1.98, -1.98, -1.09, -1.18, -1.1, -1.63, -1.76, -1.65, -1.65, -1.67, -1.67, -1.7, -1.7, -2.2, -2.22, -1.58, -2.16, -1.99, -2.2, -1.2, -0.54, -0.0, -0.0, -1.19, -1.19, -1.19, -0.0, -0.0, -0.0, -0.0, -0.0, -1.7, -3.22, -2.0, -0.0, -0.0, -0.0, -1.7, -1.7, -1.7, -0.98, -1.13, -0.0, -0.0, -0.0, -0.0, 2.0, 3.93, 4.98, 6.02, 6.65, 6.45, 6.16, 4.98, 1.2, 0.0, -1.08, -2.0, -3.16, -2.84, -1.2, 1.34, 0.88, 1.84, 3.4, 5.77, 7.12, 6.71, 4.6, 1.13, 0.0, 0.0, 0.0, 0.0, -2.0, -2.68, -3.58, -3.6, -3.58, -3.93, -4.0, -4.47, -3.16, -0.88, 0.88, 4.8, 5.29, 4.47, 4.02, 3.13, 2.68, 2.68, 2.4, 2.53, 2.0, 0.96, -0.96, -2.99, -1.84, -1.03, -1.09, -1.18, -1.1, -1.2, -1.76, -1.65, -1.8, -1.14, -1.14, -1.16, -1.55, -1.73, -1.76, -2.23, -2.23, -1.88, -1.9, -1.26, -0.6, -0.0, -0.0, 0.57, 0.71, -0.0, -0.0, -0.0, -0.0, -0.0, 1.27, -0.0, -1.55, -1.27, -1.27, -1.08, -1.99, -2.2, -1.8, -0.98, -1.13, -0.0, -0.0, -0.0, -0.0, -0.0, 1.55, 1.83, 3.47, 4.43, 4.43, 3.22, 1.84, 1.84, -0.0, -0.0, 1.34, 1.79, -2.4, -3.16, -3.58, -1.99, -0.0, 1.67, 3.27, 4.95, 5.77, 3.93, 0.0, -1.99, -2.0, 0.0, 0.0, 0.0, -0.87, -2.98, -4.02, -4.34, -4.34, -4.4, -3.6, -3.13, -3.35, -3.16, 0.0, 3.22, 4.22, 5.09, 5.09, 4.15, 3.47, 2.68, 2.24, 2.0, 1.74, 1.27, -1.08, -1.99, -1.99, -0.96, -1.18, -1.1, -1.1, -1.2, -1.12, -1.12, -1.14, -1.14, -1.16, -1.16, -1.19, -1.08, -1.58, -1.6, -1.61, -1.61, -1.24, -1.26, -0.95, -0.63, -0.0, -0.0, 0.95, 0.6, 0.8, 0.8, 1.26, 1.26, 1.9, 1.88, 1.8, -0.0, -1.27, -2.0, -2.0, -1.8, -1.13, -0.0, -0.0, -0.0, -0.0, -0.0, -1.08, -0.96, -0.0, -0.0, -0.0, 1.63, -0.0, -0.0, -0.0, -0.0, -0.89, -0.0, -0.0, -0.0, 1.84, 3.13, -3.9, -3.4, -0.0, 1.75, 3.27, 2.67, 1.75, -0.0, -1.08, -3.13, -2.23, -1.83, -1.99, -2.2, -3.35, -4.47, -5.29, -4.82, -4.47, -4.47, -3.13, -2.24, -2.24, -3.39, -2.21, -1.4, 2.68, 3.93, 3.79, 3.07, 2.41, 2.21, 1.26, 1.34, 2.0, 1.4, -0.0, -1.08, -0.96, -0.96, -1.18, -1.1, -1.2, -1.12, -1.12, -1.12, -1.14, -1.14, -1.16, -1.07, -1.19, -1.08, -1.11, -1.13, -1.16, -1.2, -1.24, -0.57, -0.6, -0.63, -0.0, -0.0, 0.45, 0.89, 1.34, 1.34, 1.79, 1.7, 2.12, 1.9, 1.88, 0.98, -0.0, -1.13, -0.0, -0.0, -0.0, -0.0, -0.0, -0.0, -0.0, -1.08, -1.7, -1.3, -0.0, -0.0, -0.0, -0.0, -0.0, -0.0, -0.0, -1.41, -1.84, -0.0, -0.0, 0.98, 3.22, 4.43, -0.0, -3.4, -1.67, -0.0, 1.33, -0.0, -0.0, -0.81, -0.77, -0.0, -0.0, -2.24, -3.13, -3.16, -3.72, -3.6, -3.77, -4.6, -4.47, -4.02, -3.58, -2.68, -2.68, -3.58, -3.13, -2.24, 0.0, 1.58, 0.0, 0.0, 0.0, 0.99, 1.2, 0.0, 1.34, 1.26, -0.0, -0.0, -0.0, -1.05, -0.56, -1.1, -1.2, -1.12, -1.12, -1.14, -1.14, -1.05, -1.16, -1.07, -0.55, -0.55, -0.57, -0.59, -0.61, -0.65, -0.54, -0.57, -0.6, -0.0, -0.0, -0.0, 0.45, 0.89, 0.89, 1.34, 1.34, 1.79, 1.7, 1.26, 1.24, 1.9, 2.0, -0.0, -0.0, 1.8, 1.8, 1.9, -0.0, -0.0, -1.27, -2.2, -2.0, -2.0, -2.0, -0.0, -0.0, -0.0, -0.0, -0.0, -0.0, -1.55, -0.0, -0.0, -0.0, 2.0, 3.16, 2.84, 2.6, -0.0, -1.84, -0.0, -0.0, -0.0, -0.0, -1.26, -1.26, 1.26, 2.99, -0.0, -0.89, -0.85, -0.82, -1.63, -0.85, -0.83, -3.16, -4.02, -3.39, -2.97, -3.13, -3.58, -3.13, -2.24, -1.2, -1.4, -3.13, -3.16, -0.87, 0.0, 0.0, 0.0, 0.0, 0.89, 1.79, -0.0, -1.08, -1.08, -0.56, -0.56, -1.12, -1.12, -1.12, -1.14, -1.14, -1.16, -1.16, -0.54, -0.55, -0.63, -0.57, -0.59, -0.61, -0.65, -0.54, -0.57, -0.0, -0.0, -0.0, -0.0, 0.45, 0.89, 0.89, 1.34, 1.34, 1.34, 1.79, 1.79, 1.6, 1.26, 1.86, 2.84, 1.8, 1.98, 3.35, 2.97, -0.0, -0.0, -1.13, -2.53, -2.84, -2.84, -1.8, -2.0, -0.0, -0.0, -0.0, -0.0, -0.0, -0.0, -0.0, -0.0, 1.55, 2.2, 2.0, 1.8, 1.7, 1.52, -0.0, -0.0, -0.0, -0.0, -0.0, -0.0, -0.0, 4.56, 3.15, -0.0, -2.47, -1.52, -0.79, -0.0, -0.0, 0.85, -0.0, -3.58, -3.35, -3.16, -4.0, -3.6, -3.9, -3.13, -2.68, -1.58, -1.6, -3.13, -1.13, 0.0, 0.0, -0.99, 0.0, 1.34, 0.89, -0.0, -0.99, -0.99, -0.56, -0.61, -0.57, -1.12, -1.14, -1.14, -1.05, -0.59, -0.54, -0.61, -0.55, -0.57, -0.57, -0.0, -0.0, -0.0, -0.65, -0.0, -0.0, 0.45, 0.45, -0.0, 0.45, 0.89, 0.95, 0.6, 0.95, 1.2, 1.34, 1.34, 1.34, 1.34, 1.7, 3.6, 1.98, 2.41, 3.16, 2.0, -0.0, -1.8, -2.0, -1.13, -1.8, -1.98, -2.0, -2.0, -1.41, -0.0, -0.0, -0.0, -0.0, -0.0, -0.0, -0.0, 1.8, 2.0, 2.0, 2.0, 2.0, -0.0, -0.0, -0.0, 1.6, 2.84, 3.16, 2.98, 4.4, 2.8, -0.0, -2.49, -2.82, -2.44, -0.85, -0.0, 0.8, 1.75, 1.73, -1.13, -3.13, -3.35, -4.0, -4.98, -5.26, -4.02, -3.58, -2.68, -0.0, -2.24, -1.58, -2.21, -2.84, -1.6, 0.0, 0.0, 0.0, -1.34, -1.58, -1.58, -0.56, -0.57, -0.57, -0.57, -0.58, -0.58, -0.53, -0.59, -0.54, -0.61, -0.55, -0.57, -0.0, -0.0, -0.0, -0.0, -0.0, -0.0, -0.0, 0.45, -0.89, -0.0, 0.63, 1.34, 0.6, 0.0, 0.0, 0.95, 0.95, 1.2, 1.34, 1.34, 1.34, 1.26, 1.9, 2.23, 1.08, -0.0, -0.0, -0.0, -1.7, -0.0, -1.55, -1.55, -1.41, -0.0, -0.0, -0.0, -0.0, -0.0, -0.0, -0.0, -0.0, 2.53, 2.53, 2.53, 1.8, 1.8, 1.8, 1.8, 2.53, 2.21, 3.13, 3.58, 4.02, 3.39, 3.9, 1.7, -1.32, -2.69, -1.4, -1.84, -1.03, -0.0, 0.89, 2.51, 2.67, 0.89, -0.0, -0.0, -2.95, -4.98, -5.94, -4.02, -4.02, -3.58, -3.35, -2.8, -2.8, -3.13, -3.72, -2.23, 0.0, 0.0, -1.58, -2.4, -1.79, -1.79, -0.56, -0.57, -0.57, -0.53, -0.58, -0.58, -0.59, -0.54, -0.54, -0.55, -0.55, -0.0, -0.0, -0.0, -0.0, -0.0, -0.0, 0.61, 0.99, 0.0, -0.89, -0.6, -0.0, 1.2, -0.0, 2.68, 0.45, 1.34, 1.34, 0.89, 1.34, 1.34, 1.34, 1.2, 1.6, 1.86, 1.49, 1.2, 0.98, -0.0, -1.08, -1.08, -1.7, -0.0, -0.0, -0.0, -0.0, -0.0, -0.0, -0.0, -0.0, -0.0, -0.0, 2.21, 2.21, -0.0, -0.0, 2.21, 3.13, 3.58, 3.13, 3.13, 3.13, 2.68, 2.68, 3.13, 3.58, 3.35, 0.98, -0.0, 2.2, 2.48, 1.83, 1.99, 2.6, 2.8, 1.84, 0.89, 0.84, -0.0, -2.82, -4.74, -5.2, -4.15, -4.82, -4.82, -4.82, -4.15, -2.23, -1.74, -3.13, -2.53, -1.13, 0.0, -1.9, -2.4, -2.68, -2.68, -0.57, -0.57, -0.57, -0.58, -0.58, -0.53, -0.59, -0.54, -0.54, -0.0, -0.0, -0.0, -0.0, -0.0, -0.0, -0.0, -0.0, -0.0, 0.98, -0.0, -0.99, -0.54, -0.0, 1.13, 1.13, -0.0, -0.0, -0.0, 0.6, 0.89, 1.34, 1.34, 1.34, 1.34, 1.34, 1.79, 1.7, 1.86, 1.24, 1.24, -0.0, -0.0, -0.0, -0.0, 1.2, 2.0, -0.0, -0.0, -0.0, -0.0, -0.0, -0.0, -0.0, 2.53, 1.2, -0.0, 2.24, 1.34, 1.79, 3.13, 3.13, 3.13, 3.13, 3.13, 2.24, 2.68, 3.39, 4.34, 4.98, 6.02, 7.37, 8.9, 8.45, 6.51, 4.6, 3.22, 1.99, 0.88, -0.0, -0.0, -1.84, -4.74, -5.94, -5.26, -5.36, -4.92, -4.92, -4.85, -2.68, -1.66, -1.27, -3.13, -3.2, -1.4, -1.58, -2.8, -3.13, -3.13, -0.57, -0.57, -0.53, -0.58, -0.58, -0.53, -0.0, -0.0, -0.0, -0.0, -0.0, -0.0, -0.0, -0.0, -0.0, -0.0, -0.0, -0.0, -0.0, -0.0, -0.0, -0.0, -0.0, 0.71, 1.24, 1.2, 1.49, 1.24, 1.26, 1.6, 1.6, 1.79, 1.79, 1.79, 1.79, 1.79, 1.79, 1.79, 1.7, 1.7, 1.6, 0.95, 0.6, 0.8, 1.2, 3.48, 1.8, -0.0, -0.0, -0.0, -0.0, -0.0, -0.0, 1.8, 1.8, 2.21, 1.79, 0.0, 0.0, 2.68, 3.13, 3.13, 2.68, 2.68, 1.58, 1.9, 2.8, 3.9, 4.98, 6.7, 8.77, 9.83, 9.24, 6.65, 3.9, 1.98, -0.0, -0.0, -0.0, -0.0, -0.0, -2.8, -4.98, -4.92, -4.92, -4.82, -4.92, -5.09, -4.81, -2.4, -1.99, -2.23, -2.8, -2.4, -2.0, -2.68, -2.68, -2.68, -0.0, -0.0, -0.0, -0.0, -0.0, -0.0, -0.0, -0.0, -0.0, -0.0, -0.0, -0.0, -0.0, -0.0, -0.0, -0.0, -0.0, -0.0, -0.0, -0.0, 0.53, 0.65, 0.71, 0.57, 1.26, 1.26, 1.58, 1.86, 1.86, 2.12, 2.12, 1.7, 1.7, 1.79, 1.79, 1.79, 1.79, 2.24, 2.24, 2.24, 2.24, 2.17, 2.12, 1.86, 1.9, 2.5, 4.4, 2.53, -0.0, -0.0, -0.0, -0.0, -0.0, 2.53, 2.84, 4.0, 3.13, 1.9, 0.0, 0.0, 1.2, 0.0, 1.79, 1.34, -0.0, 1.9, 2.8, 3.39, 4.0, 6.0, 6.64, 4.47, -1.4, -3.58, -1.98, -2.41, -3.16, -2.53, -1.55, -0.0, -0.0, -0.0, -1.84, -3.22, -4.0, -4.0, -4.29, -5.58, -5.21, -3.79, -2.3, -0.87, -1.2, -2.24, -2.0, -2.68, -3.13, -3.13, -0.0, -0.0, -0.0, -0.0, -0.0, -0.0, -0.0, -0.0, -0.0, -0.0, -0.0, -0.0, -0.0, -0.0, -0.0, -0.0, -0.0, -0.0, -0.0, -0.0, 0.54, 0.54, 0.71, 0.57, 0.8, 1.26, 1.26, 1.7, 2.12, 2.12, 2.12, 2.12, 2.12, 2.12, 2.12, 2.24, 2.24, 2.24, 2.24, 2.24, 2.68, 2.6, 2.6, 2.4, 2.4, 2.68, 4.66, 2.53, -0.0, -0.0, -0.0, -0.0, -0.0, 2.53, 2.53, 4.0, 3.82, 3.13, 0.0, 0.0, 0.0, 0.0, 1.79, 1.34, 1.79, 1.58, 2.68, 2.8, 3.82, 4.0, 3.22, -0.0, -5.73, -5.09, -5.09, -3.83, -3.58, -3.16, -1.66, -0.0, -0.0, -0.0, -0.0, -0.95, -1.98, -2.6, -3.91, -5.24, -5.94, -5.81, -3.6, -1.9, -1.0, -1.79, -2.0, -2.68, -2.4, -2.4, -0.0, -0.0, -0.0, -0.0, -0.0, -0.0, -0.0, -0.0, -0.0, -0.0, -0.0, -0.0, -0.0, -0.0, -0.0, -0.0, -0.0, -0.0, -0.0, -0.0, 0.54, 0.54, 0.71, 0.71, 0.57, 1.26, 1.26, 1.26, 1.7, 2.12, 2.12, 2.12, 2.17, 2.17, 2.17, 2.17, 2.24, 2.24, 2.24, 2.24, 2.68, 2.6, 2.6, 2.6, 2.4, 2.4, 3.16, 2.0, -0.0, -0.0, 2.0, 1.8, 2.53, 2.53, 2.53, 3.6, 3.35, 3.9, 4.02, 0.0, 0.0, 0.0, 1.34, 1.34, 1.79, 1.9, 2.4, 3.58, 3.58, 4.47, 4.0, -3.2, -5.29, -5.36, -5.36, -4.66, -4.66, -3.48, -2.98, -0.81, -0.0, -0.76, -0.82, -0.0, -0.89, -2.99, -4.11, -4.98, -5.81, -6.64, -4.92, -3.9, -2.54, -1.79, -2.24, -2.68, -2.4, -2.4, -0.0, -0.0, -0.0, -0.0, -0.0, -0.0, -0.0, -0.0, -0.0, -0.0, -0.0, -0.0, -0.0, -0.0, -0.0, -0.0, -0.0, -0.0, -0.0, 0.53, 0.65, 0.65, 0.54, 0.71, 0.71, 0.99, 1.26, 1.26, 1.26, 1.7, 2.12, 2.12, 2.12, 2.17, 2.17, 2.17, 2.17, 2.24, 2.24, 2.24, 2.24, 2.17, 2.17, 2.12, 2.12, 2.12, 1.86, 1.9, 1.2, 1.24, 1.9, 3.48, 1.8, 2.84, 2.53, 2.53, 3.6, 3.35, 4.4, 3.13, 3.13, -1.9, -1.79, 1.79, -0.0, 2.4, 2.8, 3.58, 3.58, 4.92, 4.0, -0.0, -5.51, -5.94, -5.73, -5.36, -3.95, -3.35, -2.98, -2.76, -2.29, -1.6, -0.76, -0.0, -0.0, -1.83, -3.48, -3.9, -4.82, -5.09, -6.71, -5.36, -3.95, -3.13, -2.24, -2.68, -1.9, -1.9, -0.0, -0.0, -0.0, -0.0, -0.0, -0.0, -0.0, -0.0, -0.0, -0.0, -0.0, -0.0, -0.0, -0.0, -0.0, 0.59, 0.51, 0.61, 0.53, 0.53, 0.65, 0.65, 0.65, 0.54, 1.24, 1.24, 1.26, 1.26, 1.26, 1.7, 1.7, 2.12, 2.12, 2.12, 2.17, 2.17, 2.17, 2.17, 2.24, 2.17, 2.17, 2.12, 2.12, 2.12, 2.12, 1.7, 2.12, 1.86, 1.49, 1.6, 1.6, 1.86, 3.16, 2.2, 3.16, 3.6, 2.53, 3.6, 4.66, 3.79, 2.84, 2.68, -2.24, 1.34, -0.0, 2.4, 3.39, 3.82, 4.02, 4.02, 3.9, 1.7, -0.98, -4.47, -5.94, -6.64, -5.36, -4.57, -4.29, -3.91, -3.72, -3.11, -1.6, -0.82, -0.82, -0.96, -1.08, -1.4, -2.68, -2.97, -4.98, -6.21, -4.92, -3.13, -2.24, -2.68, -1.58, -1.58, -0.0, -0.0, -0.0, -0.0, -0.0, -0.0, -0.0, -0.0, -0.0, -0.0, -0.0, -0.0, -0.0, 0.51, 0.59, 0.59, 0.51, 0.61, 0.61, 0.53, 0.53, 0.65, 0.65, 0.65, 1.0, 1.24, 1.24, 1.58, 1.26, 1.49, 1.7, 2.12, 2.12, 2.12, 2.12, 2.24, 2.24, 2.24, 2.24, 2.24, 2.17, 2.12, 2.12, 2.12, 1.7, 1.7, 1.7, 1.7, 1.6, 1.2, 1.2, 1.2, 1.26, 1.9, 3.16, 3.35, 2.84, 3.2, 3.35, 4.4, 4.46, 1.9, 2.68, 1.79, 2.68, 2.4, 3.39, 3.9, 4.02, 4.02, 3.82, 2.53, 1.08, -0.0, -1.13, -4.98, -6.2, -5.36, -4.98, -5.21, -5.49, -4.16, -3.33, -3.0, -2.2, -0.0, 0.89, -0.0, -1.08, -1.99, -4.11, -5.34, -5.73, -4.02, -2.24, -1.79, -0.0, -0.0, -0.0, -0.0, -0.0, -0.0, -0.0, -0.0, -0.0, -0.0, -0.0, 0.55, 0.57, 0.57, 0.57, 0.51, 0.59, 0.59, 0.51, 0.61, 0.61, 0.53, 0.53, 0.65, 0.65, 0.65, 1.2, 1.24, 1.24, 1.24, 1.24, 1.86, 1.86, 1.86, 2.12, 2.12, 2.12, 2.24, 2.24, 2.24, 2.24, 2.24, 2.24, 2.12, 2.17, 2.24, 1.79, 1.2, 1.2, 1.79, 1.6, 1.2, 1.2, 1.2, 1.2, 1.6, 1.9, 3.16, 3.16, 3.6, 3.39, 4.34, 4.77, 3.35, -0.0, -0.0, -0.0, 3.13, 4.02, 4.47, 4.47, 4.47, 4.34, 3.39, 1.6, -0.0, -0.0, -0.95, -2.99, -5.36, -5.81, -5.51, -6.21, -5.29, -4.42, -3.9, -2.47, -0.72, -0.0, -0.89, -2.8, -3.0, -3.91, -5.2, -5.73, -4.02, -2.68, -1.58, -1.0, -1.0, -0.0, -0.0, -0.0, -0.0, 0.54, 0.61, 0.55, 0.55, 0.55, 0.55, 0.57, 0.57, 0.57, 0.51, 0.59, 0.59, 0.51, 0.61, 0.61, 0.53, 0.53, 0.65, 0.65, 0.65, 1.2, 1.2, 1.24, 1.24, 1.58, 1.58, 1.86, 1.86, 1.86, 2.12, 2.12, 2.12, 2.24, 2.24, 2.24, 2.24, 2.24, 2.24, 2.24, 3.58, 3.13, 0.95, 0.0, 0.0, 0.45, 1.34, 1.34, 1.34, 1.34, 0.63, 0.95, 1.58, 3.16, 3.16, 3.9, 4.34, 4.34, 3.35, 1.13, -0.0, -0.0, 3.82, 4.47, 4.82, 4.57, 4.34, 4.02, 3.35, -0.0, -2.23, -2.99, -1.98, -0.0, -2.0, -4.92, -5.36, -6.45, -5.75, -5.35, -4.45, -3.79, -3.0, -3.2, -3.55, -3.72, -2.8, -2.8, -4.54, -4.22, -4.38, -2.98, -1.98, -0.88, -0.88, 0.59, 0.59, 0.54, 0.54, 0.54, 0.61, 0.55, 0.55, 0.55, 0.55, 0.63, 0.57, 0.57, 0.51, 0.59, 0.59, 0.51, 0.61, 0.61, 0.61, 0.53, 0.53, 0.65, 0.65, 0.65, 1.2, 1.2, 1.24, 1.26, 1.26, 1.26, 1.86, 1.86, 1.86, 2.12, 2.12, 2.24, 2.24, 2.24, 2.24, 2.24, 2.24, 2.24, 2.6, 3.07, 3.13, 1.79, -1.34, 0.45, 0.89, 1.34, 1.34, 1.34, 0.89, 0.89, 0.63, 1.26, 2.4, 4.4, 4.0, 4.0, 2.53, 1.13, -0.0, 2.21, 3.35, 4.0, 4.92, 2.68, 3.16, 3.13, 2.23, -0.0, -4.77, -4.98, -2.76, -0.96, -0.0, -2.53, -4.82, -5.36, -5.31, -5.86, -5.59, -4.74, -3.79, -3.79, -4.01, -3.35, -1.55, -1.55, -3.22, -3.58, -4.4, -3.16, -2.53, -1.6, -1.6, 0.54, 0.54, 0.54, 0.54, 0.61, 0.55, 0.55, 0.55, 0.55, 0.55, 0.57, 0.57, 0.57, 0.59, 0.59, 0.59, 0.51, 0.61, 0.61, 0.61, 0.53, 0.53, 0.65, 0.65, 0.65, 1.2, 1.2, 1.9, 1.49, 1.2, 0.6, 1.26, 1.86, 1.86, 2.12, 2.17, 2.12, 2.24, 2.24, 2.24, 2.24, 1.79, 1.79, 2.24, 2.63, 3.39, -0.0, -0.6, -0.0, 0.89, 1.34, 1.34, 1.34, 0.89, 0.89, -0.0, -0.0, 1.26, 2.4, 4.0, 3.35, 2.53, 1.13, 2.53, 2.98, 3.35, 4.0, 4.4, 3.13, 0.0, -0.0, 2.0, 1.27, -4.34, -6.02, -4.98, -1.99, -0.0, -1.08, -4.02, -4.38, -5.36, -5.81, -5.86, -5.29, -4.11, -2.86, -3.07, -2.68, -2.3, -1.55, -1.83, -2.68, -3.48, -2.53, -2.4, -1.72, -1.72, 0.54, 0.54, 0.54, 0.54, 0.61, 0.55, 0.55, 0.55, 0.55, 0.63, 0.57, 0.57, 0.57, 0.59, 0.59, 0.59, 0.51, 0.61, 0.61, 0.61, 0.53, 0.53, 0.65, 0.65, 0.65, 0.65, 1.2, 1.61, 2.53, 0.6, 0.6, 0.8, 1.86, 1.86, 2.12, 2.17, 2.17, 2.24, 2.24, 2.24, 2.24, 1.79, 1.79, 2.24, 2.24, 2.6, 1.58, 0.8, 0.63, 0.89, 1.34, 1.34, 1.34, 0.89, -0.0, -0.0, -0.0, -0.0, 0.6, 1.86, 3.35, 2.53, 2.21, 2.6, 3.82, 3.9, 4.34, 5.09, 4.0, -0.0, -0.0, 2.23, 3.79, -0.0, -5.51, -5.51, -4.0, -2.0, -2.0, -3.47, -4.15, -4.38, -5.31, -5.6, -5.21, -4.07, -2.48, -1.84, -3.16, -2.41, -1.66, -1.55, -1.55, -2.53, -2.53, -2.4, -2.2, -2.2, 0.54, 0.54, 0.54, 0.61, 0.61, 0.55, 0.55, 0.55, 0.63, 0.57, 0.57, 0.57, 0.57, 0.57, 0.59, 0.59, 0.51, 0.61, 0.61, 0.61, 0.53, 0.65, 0.65, 0.65, 0.65, 0.54, 1.0, 1.2, 1.61, 1.98, 0.57, 1.26, 1.26, 1.86, 2.12, 2.12, 2.17, 2.17, 2.24, 2.24, 2.24, 1.79, 1.79, 2.24, 2.24, 2.24, 2.12, 1.7, 1.34, 1.34, 1.34, 1.34, 1.34, 1.34, 0.89, -0.0, -0.95, -0.95, -0.0, 0.95, 1.86, 2.4, 3.2, 3.39, 3.9, 4.02, 4.02, 4.34, 5.09, 4.84, 2.95, 3.72, 4.34, 2.53, -2.84, -5.26, -4.47, -3.9, -3.2, -3.47, -3.47, -3.39, -3.58, -4.8, -4.93, -3.73, -2.51, -1.4, -2.23, -3.16, -3.16, -1.66, -1.55, -2.4, -2.29, -2.8, -2.35, -2.35, 1.07, 1.07, 1.07, 1.19, 1.19, 1.08, 1.08, 1.08, 1.23, 1.11, 0.57, 0.57, 0.57, 0.51, 0.59, 0.59, 0.51, 0.61, 0.61, 0.61, 0.53, 0.65, 0.65, 0.65, 0.54, 0.54, 0.54, 1.24, 1.24, 1.24, 1.24, 1.26, 1.26, 1.49, 2.12, 2.12, 2.12, 2.17, 2.24, 2.24, 2.24, 1.79, 1.79, 2.24, 2.24, 2.24, 1.79, 1.79, 1.79, 1.34, 1.34, 1.34, 1.34, 1.34, 0.89, 0.45, -0.63, -0.95, -0.63, 0.45, 3.6, 3.58, 3.58, 4.02, 3.58, 3.39, 3.39, 3.82, 5.09, 4.46, 3.93, 5.09, 4.92, 3.39, 1.13, -1.4, -3.58, -3.9, -4.02, -3.58, -2.68, -2.68, -2.54, -3.22, -3.84, -3.16, -2.53, -1.88, -2.23, -2.84, -3.35, -3.16, -2.3, -2.4, -2.29, -2.47, -2.35, -2.35, 1.07, 1.07, 1.07, 1.19, 1.08, 1.08, 1.08, 1.23, 1.11, 1.11, 1.11, 0.57, 0.57, 0.59, 0.59, 0.59, 0.51, 0.61, 0.61, 0.53, 0.53, 0.65, 0.65, 0.65, 0.54, 0.54, 0.71, 1.24, 1.24, 1.24, 1.24, 1.26, 1.26, 1.49, 1.7, 2.12, 2.12, 2.12, 2.24, 2.24, 2.24, 2.24, 2.24, 2.24, 2.24, 2.24, 1.79, 1.79, 1.79, 1.79, 1.34, 1.34, 1.34, 1.34, 1.34, 0.45, 0.45, -0.89, -0.89, 0.0, 1.6, 4.02, 4.02, 3.58, 3.58, 3.6, 3.35, 3.35, 3.6, 4.0, 4.0, 5.09, 5.36, 4.02, 4.34, 2.98, 1.34, -3.35, -4.82, -4.47, -3.13, -2.68, -2.54, -2.98, -2.84, -2.53, -1.88, -2.23, -2.23, -3.35, -3.35, -3.6, -3.16, -3.07, -3.22, -3.11, -2.35, -2.35, 1.07, 1.07, 1.07, 1.19, 1.08, 1.08, 1.08, 1.23, 1.11, 1.11, 1.11, 1.11, 0.57, 0.59, 0.59, 0.59, 0.51, 0.61, 0.61, 0.53, 0.53, 0.65, 0.65, 0.54, 0.54, 0.54, 0.71, 0.71, 1.24, 0.99, 1.26, 1.26, 1.26, 1.26, 1.7, 1.7, 1.7, 2.12, 2.24, 2.24, 2.24, 2.24, 2.24, 2.12, 2.12, 1.7, 1.79, 1.79, 1.79, 1.79, 1.79, 1.79, 1.34, 1.34, 1.34, 1.34, 0.89, 0.45, -0.89, 0.45, 0.45, 1.79, 4.47, 3.58, 2.68, 3.58, 3.82, 3.9, 3.9, 3.9, 5.09, 4.34, 6.07, 4.47, 3.13, 1.9, -0.0, -3.58, -4.92, -4.47, -3.58, -3.13, -2.54, -2.21, -1.6, -1.8, -2.0, -1.8, -1.98, -2.53, -3.35, -4.0, -4.0, -3.48, -3.35, -3.64, -3.0, -3.0, 1.07, 1.07, 1.19, 1.19, 1.08, 1.08, 1.08, 1.23, 1.11, 1.11, 1.11, 1.11, 1.11, 0.59, 0.59, 0.59, 0.61, 0.61, 0.61, 0.53, 0.53, 0.65, 0.65, 0.54, 0.54, 0.71, 0.71, 0.57, 0.57, 0.99, 1.26, 1.26, 1.26, 1.26, 1.7, 1.7, 1.7, 1.79, 1.79, 2.24, 2.24, 2.24, 2.68, 3.39, 1.26, 1.6, 1.7, 2.24, 2.24, 2.12, 1.7, 1.79, 1.79, 1.79, 1.79, 1.79, 1.79, 0.89, 0.45, 0.45, 0.45, 1.34, 4.47, 3.58, 2.8, 3.58, 3.58, 4.02, 3.58, 4.02, 3.9, 4.34, 5.81, 4.02, -2.68, -2.97, -3.35, -3.93, -4.82, -4.02, -3.58, -3.13, -2.54, -1.74, -0.98, -0.88, -1.8, -1.98, -1.98, -2.53, -3.35, -4.0, -4.57, -3.93, -4.54, -4.01, -3.9, -3.9, 1.07, 1.07, 1.19, 1.19, 1.08, 1.08, 1.23, 1.23, 1.11, 1.11, 1.11, 1.11, 1.11, 0.59, 0.59, 0.59, 0.51, 0.61, 0.61, 0.53, 0.53, 0.65, 0.65, 0.54, 0.54, 0.71, 0.57, 0.57, 0.57, 0.8, 1.26, 1.26, 1.26, 1.26, 1.6, 1.7, 1.7, 1.79, 1.79, 1.79, 2.24, 2.24, 2.68, 3.58, 1.2, 0.6, 1.26, 2.12, 2.12, 2.12, 2.12, 1.7, 1.7, 1.79, 1.79, 1.79, 1.79, 1.79, 0.45, 0.0, 0.45, 1.34, 3.58, 3.13, 2.68, 4.02, 4.02, 3.58, 3.39, 3.39, 3.9, 5.36, 5.36, 1.79, -4.92, -4.92, -4.57, -4.98, -4.85, -4.47, -3.95, -3.58, -2.6, -1.6, -0.98, -0.87, -1.6, -1.98, -1.98, -2.53, -2.98, -4.0, -4.57, -3.93, -4.19, -4.46, -4.74, -3.9, 1.07, 1.07, 1.19, 1.19, 1.08, 1.08, 1.23, 1.23, 1.11, 1.11, 1.11, 1.11, 1.11, 1.13, 0.59, 0.59, 0.51, 0.61, 0.61, 0.53, 0.53, 0.65, 0.54, 0.54, 0.54, 0.71, 0.57, 0.57, 0.8, 0.8, 0.8, 1.26, 1.26, 1.6, 1.6, 1.7, 1.7, 1.79, 1.79, 1.79, 1.79, 2.24, 2.68, 2.68, 3.13, 0.6, 0.6, 1.26, 1.7, 2.12, 2.12, 2.12, 2.12, 1.7, 1.7, 1.7, 1.79, 2.24, 1.79, 0.89, 0.89, 1.34, 1.79, 3.58, 3.58, 4.02, 3.58, 3.39, 3.39, 3.39, 4.02, 4.47, 5.36, 2.84, -4.92, -5.73, -5.36, -5.36, -5.36, -4.47, -4.47, -4.02, -3.6, -1.8, -0.87, -0.99, -1.74, -1.98, -2.53, -2.53, -3.39, -4.34, -4.82, -4.4, -4.29, -4.54, -4.43, -4.74, 1.07, 1.07, 1.19, 1.19, 1.08, 1.08, 1.23, 1.23, 1.11, 1.11, 1.11, 1.11, 1.27, 1.13, 0.59, 0.59, 0.51, 0.61, 0.53, 0.53, 0.65, 0.65, 0.54, 0.54, 0.54, 0.71, 0.57, 0.57, 0.8, 0.6, 0.6, 0.6, 0.95, 1.2, 1.6, 1.7, 1.7, 1.79, 1.79, 1.79, 1.79, 2.24, 2.24, 2.68, 2.68, 2.68, 0.0, 0.63, 1.6, 1.7, 2.12, 2.12, 2.12, 2.12, 2.12, 1.7, 1.7, 2.12, 2.17, 2.12, 1.79, 1.79, 3.58, 3.58, 3.58, 3.58, 3.13, 3.6, 3.39, 3.9, 4.02, 4.47, 5.36, 5.09, 2.53, -5.36, -5.81, -5.29, -4.82, -4.0, -3.47, -3.9, -3.58, -3.16, -1.6, -0.99, -1.98, -2.53, -2.53, -3.39, -3.39, -4.02, -4.82, -4.38, -4.4, -4.6, -4.89, -4.89, 1.07, 1.07, 1.19, 1.19, 1.08, 1.08, 1.23, 1.23, 1.11, 1.11, 1.11, 1.11, 1.27, 1.13, 1.13, 0.59, 0.51, 0.61, 0.61, 0.53, 0.65, 0.65, 0.54, 0.54, 0.71, 0.71, 0.57, 0.57, 0.8, 0.6, 0.6, 0.6, 0.95, 1.2, 1.2, 1.6, 1.79, 1.79, 1.79, 1.79, 1.79, 2.24, 2.17, 2.6, 3.13, 2.68, 1.34, 0.89, 1.2, 1.7, 2.12, 2.12, 2.12, 2.12, 2.12, 2.12, 2.12, 2.12, 2.17, 2.6, 2.17, 2.24, 2.24, 4.02, 3.58, 3.13, 3.58, 3.58, 3.58, 4.02, 4.47, 4.47, 5.36, 4.38, 4.84, -0.0, -3.82, -4.82, -4.29, -3.16, -2.54, -2.98, -3.84, -3.48, -2.84, -2.23, -1.98, -3.35, -2.98, -3.39, -3.39, -4.02, -4.47, -4.92, -3.93, -4.54, -4.54, -4.54, 1.07, 1.07, 1.19, 1.19, 1.08, 1.08, 1.23, 1.23, 1.11, 1.11, 1.11, 1.11, 1.27, 1.13, 1.13, 0.59, 0.51, 0.61, 0.61, 0.53, 0.65, 0.65, 0.54, 0.54, 0.71, 0.57, 0.57, 0.57, 0.8, 0.6, 0.6, 0.95, 0.95, 0.95, 1.2, 1.2, 1.79, 1.79, 1.79, 1.79, 1.79, 2.24, 2.17, 2.17, 2.6, 2.68, 2.24, 1.79, 1.6, 1.7, 2.12, 2.12, 2.12, 2.12, 2.12, 2.12, 2.12, 2.12, 2.17, 2.6, 2.6, 2.17, 2.24, 4.0, 3.58, 3.58, 3.58, 3.58, 3.58, 4.02, 4.47, 4.47, 4.47, 4.82, 4.4, 3.48, 2.23, -0.0, -2.8, -1.9, -2.24, -2.53, -4.6, -4.22, -3.58, -3.22, -2.84, -3.35, -3.9, -3.82, -3.39, -3.39, -4.02, -4.34, -4.0, -4.29, -4.29, -4.29, 1.19, 1.19, 1.19, 1.19, 1.08, 1.08, 1.08, 1.23, 1.11, 1.11, 1.11, 1.11, 1.27, 1.13, 1.13, 0.59, 0.51, 0.61, 0.61, 0.53, 0.65, 0.65, 0.54, 0.54, 0.71, 0.57, 0.57, 0.57, 0.8, 0.6, 0.6, 0.95, 0.63, 0.63, 1.2, 1.34, 1.34, 1.79, 1.79, 1.79, 1.79, 1.7, 2.12, 2.17, 2.6, 2.6, 2.17, 2.12, 1.7, 1.7, 2.12, 2.12, 2.12, 2.12, 1.86, 1.86, 1.86, 1.86, 2.17, 2.6, 2.4, 2.12, 1.79, 2.12, 3.6, 3.58, 3.58, 3.58, 3.58, 4.02, 4.92, 4.02, 4.34, 4.82, 4.4, 4.29, 4.98, 5.4, 4.0, 3.16, 3.16, -0.0, -4.15, -4.4, -4.22, -3.83, -3.6, -4.0, -4.34, -3.9, -4.02, -3.58, -4.47, -4.02, -4.0, -3.93, -3.93, -3.93, 1.19, 1.19, 1.19, 1.19, 1.08, 1.08, 1.08, 1.23, 1.23, 1.11, 1.11, 1.11, 1.27, 1.13, 1.13, 0.59, 0.51, 0.61, 0.61, 0.53, -0.0, 0.54, 0.54, 0.54, 0.71, 0.57, 0.57, 0.57, 0.8, 0.6, 0.6, 0.95, 0.95, 0.63, 0.89, 1.34, 1.34, 1.79, 1.79, 1.79, 1.79, 1.7, 2.12, 2.17, 2.17, 2.17, 2.12, 2.12, 2.12, 2.12, 2.12, 1.86, 1.86, 1.86, 1.86, 1.86, 1.86, 1.86, 2.0, 2.4, 2.4, 2.12, 1.34, 1.2, 2.12, 4.02, 4.02, 3.58, 4.02, 4.47, 4.02, 3.9, 4.34, 4.4, 4.4, 4.4, 4.98, 5.94, 6.16, 5.82, 6.21, 2.53, -3.82, -4.66, -4.15, -4.15, -4.15, -4.38, -4.34, -4.47, -4.02, -3.58, -4.02, -4.02, -4.0, -3.48, -3.48, -3.48, 1.19, 1.19, 1.19, 1.19, 1.19, 1.08, 1.08, 1.23, 1.23, 1.11, 1.11, 1.11, 1.27, 1.13, 1.13, 0.59, 0.51, 0.61, 0.61, 0.53, -0.0, -0.0, 0.54, 0.71, 0.71, 0.57, 0.57, 0.8, 0.8, 0.6, 0.6, 0.95, 0.95, 0.63, 0.89, 1.34, 1.34, 1.34, 1.79, 1.79, 1.79, 1.7, 2.12, 2.12, 2.0, 1.86, 1.86, 1.86, 1.86, 1.86, 1.86, 1.86, 1.86, 1.86, 1.86, 1.86, 1.86, 1.86, 1.86, 2.4, 2.4, 2.12, 1.34, 1.34, 1.79, 4.02, 3.58, 4.02, 4.47, 4.02, 4.02, 3.9, 4.34, 4.34, 4.34, 4.34, 4.82, 5.73, 5.94, 5.75, 6.02, 3.13, -4.02, -4.85, -4.15, -4.38, -4.41, -4.47, -4.92, -3.58, -3.58, -3.39, -4.02, -4.02, -3.6, -3.16, -3.16, -3.16, 1.73, 1.73, 1.73, 1.73, 1.73, 1.08, 1.08, 1.23, 1.23, 1.11, 1.11, 1.11, 1.27, 1.13, 1.13, 1.13, 0.51, 0.61, 0.61, 0.53, 0.53, -0.0, 0.54, 0.71, 0.57, 0.57, 0.57, 0.8, 0.8, 0.6, 0.6, 0.95, 0.95, 0.95, 1.34, 1.34, 1.34, 1.34, 1.79, 1.79, 1.7, 2.12, 2.12, 2.12, 1.86, 1.86, 1.86, 1.86, 1.86, 1.86, 1.86, 1.86, 1.86, 1.86, 1.86, 1.86, 1.86, 1.86, 1.86, 2.4, 2.4, 1.86, 1.2, 1.34, 1.79, 4.02, 3.58, 3.58, 4.02, 3.58, 3.58, 3.9, 4.47, 4.47, 4.47, 4.34, 4.38, 4.82, 5.51, 5.51, 5.29, 2.68, -4.4, -4.92, -4.38, -3.9, -4.02, -4.92, -4.47, -3.13, -3.13, -3.58, -3.58, -3.58, -2.98, -3.16, -3.16, -3.16, 1.73, 1.73, 1.73, 1.73, 1.73, 1.73, 1.57, 1.23, 1.23, 1.11, 1.11, 1.11, 1.27, 1.13, 1.13, 1.13, 0.51, 0.61, 0.61, 0.53, 0.65, -0.0, -0.0, 0.71, 0.57, 0.57, 0.57, 0.8, 0.8, 0.6, 0.6, 0.95, 0.95, 0.95, 1.34, 1.34, 1.34, 1.34, 1.79, 1.79, 1.7, 1.7, 2.12, 2.12, 1.86, 1.86, 1.86, 1.86, 1.86, 1.86, 1.86, 1.86, 1.86, 1.86, 1.86, 1.86, 1.86, 1.86, 1.86, 1.86, 2.0, 1.86, 1.7, 1.7, 2.24, 3.58, 2.4, 1.9, 2.8, 3.39, 3.39, 3.58, 4.02, 4.02, 4.34, 4.34, 4.34, 4.82, 5.26, 5.26, 4.38, 2.68, -2.84, -5.26, -4.38, -3.47, -3.13, -4.82, -4.85, -3.9, -2.68, -3.13, -3.13, -3.13, -2.98, -3.16, -3.16, -3.16, 1.73, 1.73, 1.73, 1.73, 1.73, 1.73, 1.57, 1.76, 1.23, 1.11, 1.11, 1.11, 1.27, 1.13, 1.13, 1.13, 0.51, 0.61, 0.61, 0.53, 0.65, -0.0, -0.0, -0.0, 0.57, 0.57, 0.57, 0.8, 0.6, 0.6, 0.6, 0.95, 0.95, 0.63, 0.89, 0.89, 1.34, 1.34, 1.79, 1.79, 1.7, 1.7, 2.12, 2.12, 1.86, 1.86, 1.86, 1.86, 1.86, 1.86, 1.86, 1.86, 1.86, 1.86, 1.86, 1.86, 1.86, 1.86, 1.86, 1.86, 1.86, 1.86, 1.86, 1.86, 2.17, 3.58, 2.97, 2.8, 2.21, 2.53, 2.53, 2.21, 2.97, 3.9, 4.34, 4.0, 4.34, 4.34, 4.82, 4.82, 4.34, 2.68, -1.58, -4.47, -4.82, -1.79, 1.34, -2.0, -4.15, -4.57, -2.98, -2.0, -2.24, -2.68, -2.53, -2.84, -2.84, -2.84, 1.73, 1.73, 1.73, 1.73, 1.73, 1.73, 1.57, 1.76, 1.23, 1.11, 1.11, 1.11, 1.27, 1.13, 1.13, 1.13, 0.99, 0.61, 0.61, 0.53, 0.65, 0.65, -0.0, -0.0, -0.0, 0.57, 0.57, 0.8, 0.6, 0.6, 0.95, 0.95, 0.95, 0.63, 0.89, 0.89, 1.34, 1.34, 1.34, 1.79, 1.7, 1.7, 2.12, 2.12, 1.86, 1.86, 1.86, 1.86, 1.86, 1.86, 1.86, 1.86, 1.86, 1.86, 1.86, 1.86, 1.86, 1.86, 1.86, 1.86, 1.86, 1.86, 1.86, 1.86, 2.4, 3.07, 3.9, 3.39, 3.2, 2.8, 2.8, 2.8, 2.21, 2.4, 3.9, 4.34, 4.34, 4.82, 4.92, 4.92, 3.9, 3.13, -1.58, -4.4, -2.97, -1.79, 1.34, 1.79, -1.58, -3.84, -3.48, -1.98, -2.21, -2.68, -3.2, -2.23, -2.23, -2.23, 2.4, 2.4, 1.73, 1.73, 1.73, 1.73, 1.57, 1.76, 1.23, 1.11, 1.11, 1.11, 1.27, 1.13, 1.13, 1.13, 0.99, 0.61, 0.61, 0.53, 0.65, 0.65, 0.54, -0.0, -0.0, 0.57, 0.57, 0.8, 0.6, 0.6, 0.95, 0.95, 0.95, 0.89, 0.89, 0.89, 1.34, 1.34, 1.34, 1.79, 1.7, 1.7, 2.12, 1.86, 1.86, 1.86, 1.86, 2.23, 2.23, 2.23, 2.23, 2.23, 1.86, 1.86, 1.86, 1.86, 1.86, 1.86, 1.86, 1.86, 1.86, 1.86, 2.23, 1.9, 2.15, 2.91, 4.38, 4.47, 4.47, 4.02, 3.58, 3.13, 2.68, 2.24, 3.13, 4.02, 4.92, 4.92, 4.92, 4.47, 4.47, 3.13, -2.8, -4.57, -3.47, -2.24, 0.89, 1.79, 1.79, -2.84, -4.11, -3.48, -2.53, -3.13, -3.39, -2.23, -2.23, -2.23, 2.4, 2.4, 1.73, 1.73, 1.73, 1.57, 1.76, 1.76, 1.23, 1.11, 1.11, 1.11, 1.27, 1.13, 1.13, 1.13, 1.13, 0.61, 0.61, 0.53, 0.65, 0.65, 0.54, 0.71, 0.57, 0.57, 0.57, 0.8, 0.6, 0.6, 0.95, 0.95, 0.95, 0.89, 0.89, 0.89, 0.89, 1.34, 1.34, 1.79, 1.7, 1.7, 2.12, 1.86, 1.86, 1.86, 2.23, 2.23, 2.23, 2.23, 1.9, 1.9, 1.9, 1.86, 1.86, 1.86, 1.86, 1.86, 1.86, 1.86, 1.86, 1.86, 1.9, 1.9, 2.5, 3.07, 3.39, 4.02, 5.81, 5.36, 4.82, 4.0, 2.98, 2.4, 2.68, 3.58, 4.47, 4.92, 4.47, 4.02, 4.02, 3.13, -5.36, -5.36, -4.02, -3.13, -1.79, 0.89, 1.34, -1.98, -4.11, -3.48, -3.35, -3.58, -3.39, -2.84, -2.84, -2.84, 2.4, 2.4, 2.2, 1.73, 1.73, 1.57, 1.76, 1.76, 1.23, 1.11, 1.11, 1.11, 1.27, 1.13, 1.13, 1.13, 1.13, 0.61, 0.61, 0.61, 0.65, 0.65, 0.54, 0.71, 0.57, 0.57, 0.8, 0.8, 0.6, 0.6, 0.95, 0.95, 0.95, 0.89, 0.89, 0.89, 0.89, 1.34, 1.34, 1.79, 1.7, 1.7, 1.86, 1.86, 1.86, 1.86, 2.23, 2.23, 1.9, 1.9, 1.9, 1.9, 1.9, 1.9, 1.58, 1.86, 1.86, 1.86, 1.86, 1.86, 1.86, 1.86, 1.9, 2.15, 2.5, 2.68, 3.32, 4.02, 5.81, 5.36, 4.82, 4.34, 3.6, 3.39, 3.13, 3.58, 4.47, 4.47, 4.34, 3.9, 3.82, 2.53, -4.92, -5.81, -4.92, -4.02, -3.13, -2.24, -1.34, -2.6, -4.19, -3.58, -3.82, -3.58, -3.39, -3.35, -3.35, -3.35, 2.2, 2.2, 2.2, 1.73, 1.73, 1.76, 1.76, 1.76, 1.23, 1.11, 1.11, 1.27, 1.27, 1.13, 1.13, 1.13, 0.51, 0.61, 0.61, 0.61, 0.65, 0.65, 0.54, 0.71, 0.57, 0.57, 0.8, 0.8, 0.6, 0.6, 0.95, 0.95, 0.95, 0.89, 0.89, 0.89, 0.89, 1.34, 1.34, 1.6, 1.7, 1.7, 1.86, 1.86, 1.86, 1.86, 1.9, 1.9, 1.9, 1.9, 1.9, 1.9, 1.9, 1.9, 1.9, 1.9, 1.9, 1.9, 1.9, 1.9, 1.9, 1.9, 1.9, 2.15, 2.5, 2.68, 2.91, 3.07, 4.02, 5.36, 4.92, 4.02, 3.9, 3.58, 3.58, 4.02, 4.47, 4.47, 4.82, 4.0, 3.16, 1.27, -3.35, -5.36, -5.36, -4.47, -3.13, -2.24, -2.24, -2.97, -3.58, -3.58, -2.98, -3.58, -3.39, -3.35, -3.35, -3.35, 2.2, 2.2, 2.2, 2.2, 1.94, 1.76, 1.76, 1.76, 1.76, 1.11, 1.11, 1.27, 1.13, 1.13, 1.13, 0.59, 0.61, 0.61, 0.61, 0.61, 0.65, 0.65, 0.54, 0.71, 0.57, 0.57, 0.8, 0.8, 0.6, 0.6, 0.95, 0.95, 0.95, 0.89, 0.89, 0.89, 0.89, 1.34, 1.34, 1.6, 1.7, 2.12, 1.86, 1.86, 1.86, 1.9, 1.9, 1.9, 1.9, 1.9, 1.9, 1.9, 1.9, 1.9, 1.9, 1.9, 1.9, 1.9, 1.9, 1.9, 1.9, 1.9, 1.9, 2.15, 2.5, 2.5, 2.4, 2.6, 3.53, 5.36, 4.92, 4.02, 3.58, 4.02, 4.02, 4.02, 4.02, 4.47, 4.82, 4.4, 3.93, 2.2, -0.98, -4.82, -5.36, -4.82, -3.47, -3.13, -2.68, -2.97, -2.98, -2.84, -2.98, -3.13, -2.97, -1.98, -1.98, -1.98, 2.2, 2.2, 2.2, 2.2, 1.94, 1.76, 1.76, 1.76, 1.76, 1.11, 1.11, 1.27, 1.13, 1.13, 1.13, 0.59, 0.61, 0.61, 0.61, 0.53, 0.65, 0.65, 0.54, 0.71, 0.57, 0.57, 0.8, 0.8, 0.6, 0.6, 0.95, 0.95, 0.95, 0.89, 0.89, 0.89, 1.34, 1.34, 1.2, 1.6, 1.7, 2.12, 1.86, 1.86, 1.86, 1.9, 1.9, 1.9, 1.9, 1.9, 1.9, 1.9, 1.9, 1.9, 1.9, 1.9, 1.9, 1.9, 1.9, 1.9, 1.9, 1.9, 1.9, 2.15, 2.5, 2.15, 1.86, 2.12, 2.63, 4.92, 4.92, 4.47, 4.02, 4.02, 4.02, 4.02, 4.02, 4.02, 4.34, 4.98, 4.98, 3.93, -0.0, -4.4, -5.36, -5.26, -4.4, -2.98, -2.6, -2.21, -0.99, -1.74, -2.6, -3.13, -2.8, -2.53, -2.53, -2.53, 2.2, 2.2, 2.2, 2.2, 2.44, 1.76, 1.76, 1.76, 1.58, 1.58, 1.27, 1.27, 1.13, 1.13, 1.13, 0.99, 0.61, 0.61, 0.61, 0.53, 0.65, 0.65, 0.54, 0.71, 0.57, 0.57, 0.8, 0.8, 0.6, 0.95, 0.95, 0.95, 1.34, 1.34, 0.89, 0.89, 1.34, 1.34, 1.2, 1.6, 1.6, 1.86, 1.86, 1.86, 1.9, 1.9, 1.9, 1.9, 1.9, 1.9, 1.9, 1.9, 1.9, 1.9, 1.9, 1.9, 1.9, 1.9, 1.9, 1.9, 1.9, 1.9, 1.9, 2.15, 2.5, 2.15, 1.86, 1.7, 2.17, 3.13, 3.98, 5.26, 4.34, 3.9, 4.34, 4.34, 4.34, 3.9, 4.34, 4.82, 5.29, 4.4, -0.0, -4.4, -5.36, -4.98, -4.6, -3.58, -1.8, -0.87, -0.99, -1.2, -1.9, -2.68, -1.9, -1.4, -1.4, -1.4, 2.2, 2.2, 2.2, 2.2, 2.44, 1.76, 1.76, 1.76, 1.58, 1.8, 1.27, 1.13, 1.13, 1.13, 1.13, 1.16, 1.16, 0.61, 0.61, 0.53, 0.65, 0.65, 0.54, 0.71, 0.57, 0.57, 0.8, 0.8, 0.95, 1.2, 1.2, 1.2, 1.34, 1.34, 1.34, 1.34, 1.34, 1.2, 1.2, 1.6, 1.6, 1.86, 1.86, 1.86, 1.9, 1.9, 1.9, 1.9, 1.9, 1.9, 1.9, 1.9, 1.9, 1.9, 1.9, 1.9, 1.9, 1.9, 1.9, 1.9, 1.9, 1.9, 1.9, 2.15, 2.5, 1.9, 1.26, 1.2, 1.79, 2.68, 3.58, 4.82, 4.0, 4.66, 4.34, 4.34, 4.34, 4.34, 4.47, 4.92, 5.36, 4.34, -0.0, -4.0, -5.36, -4.98, -4.6, -3.22, -1.66, -0.88, 0.0, 0.0, -1.0, -1.26, 1.34, -0.0, -0.0, -0.0, 2.2, 2.2, 2.2, 2.2, 2.44, 1.76, 1.76, 1.76, 1.58, 1.8, 1.8, 1.13, 1.13, 1.13, 1.33, 1.16, 1.16, 1.16, 1.16, 0.53, 0.65, 0.65, 0.54, 0.71, 0.57, 0.57, 0.8, 1.26, 1.26, 1.2, 1.2, 1.2, 1.34, 1.34, 1.34, 1.34, 1.34, 1.2, 1.2, 1.6, 1.26, 1.86, 1.86, 1.86, 1.9, 1.9, 1.9, 1.9, 1.9, 1.9, 1.61, 1.61, 1.9, 1.9, 1.9, 1.9, 1.9, 1.9, 1.9, 1.9, 1.9, 1.9, 1.9, 1.9, 2.15, 1.9, 1.58, 1.2, 1.2, 1.79, 2.24, 3.07, 2.91, 5.36, 4.47, 4.47, 4.34, 4.34, 4.47, 4.92, 4.92, 4.82, 1.98, -2.23, -4.92, -4.98, -3.79, -2.76, -1.84, -0.96, 0.0, 0.0, 0.0, 0.0, 0.0, 1.79, 1.79, 1.79, 2.2, 2.2, 2.2, 2.2, 2.44, 1.76, 1.76, 1.76, 1.58, 1.8, 1.8, 1.13, 1.13, 1.13, 1.33, 1.16, 1.16, 1.16, 1.16, 0.53, 0.65, 0.65, 0.54, 0.71, 0.57, 0.57, 0.8, 1.26, 1.26, 1.2, 1.2, 1.2, 1.34, 1.34, 1.34, 1.34, 1.34, 1.2, 1.2, 1.6, 1.26, 1.86, 1.86, 1.86, 1.9, 1.9, 1.9, 1.9, 1.9, 1.9, 1.61, 1.61, 1.9, 1.9, 1.9, 1.9, 1.9, 1.9, 1.9, 1.9, 1.9, 1.9, 1.9, 1.9, 2.15, 1.9, 1.58, 1.2, 1.2, 1.79, 2.24, 3.07, 2.91, 5.36, 4.47, 4.47, 4.34, 4.34, 4.47, 4.92, 4.92, 4.92, 3.35, -0.0, -3.9, -4.82, -3.93, -3.22, -1.84, -0.96, 0.0, 0.0, 0.0, 0.0, 0.0, 1.34, 1.34, 1.34]}, {"header": {"dx": 0.06612293990616946, "dy": 0.0552356325346848, "nx": 98, "ny": 59, "la1": 35.046912555036876, "la2": 31.78801023549047, "lo1": -121.43107172385933, "lo2": -114.95102361305473, "refTime": "2026042017", "parameterCategory": 1, "parameterNumber": 3}, "data": [7.21, 6.79, 6.79, 6.79, 6.3, 5.88, 5.81, 5.08, 4.93, 4.6, 4.02, 2.24, 3.58, 4.02, 3.58, 4.34, 5.26, 5.7, 6.51, 6.64, 6.52, 6.28, 5.06, 3.72, 3.72, 1.84, 0.0, 0.0, -1.4, -2.53, -4.47, -4.92, -4.92, -4.02, -3.58, -3.9, -4.0, -4.0, -3.93, -2.68, 0.99, 3.35, 4.66, 5.09, 4.84, 4.6, 5.2, 5.6, 6.16, 5.82, 5.82, 5.49, 5.15, 5.21, 4.89, 4.89, 3.91, 3.91, 2.99, 1.99, 0.96, 1.13, 0.0, 0.0, 0.0, 0.0, 0.0, 0.0, 0.0, 0.0, 0.0, 0.0, 0.0, 0.0, 0.89, 0.95, 0.89, 0.0, 0.0, 0.0, -1.08, -1.13, -1.4, -1.9, 0.0, 0.0, 0.0, 0.0, 2.53, 4.34, 5.36, 5.36, 5.81, 5.81, 6.26, 5.73, 4.98, 4.89, 7.26, 6.79, 6.79, 6.79, 6.3, 6.47, 6.04, 5.4, 5.31, 5.09, 4.44, 5.81, 4.47, 3.58, 4.02, 4.47, 4.82, 6.51, 6.58, 5.94, 7.47, 7.28, 6.63, 6.63, 4.74, 3.63, 0.99, -1.58, -2.4, -1.2, -1.9, -3.13, -4.92, -4.92, -4.47, -4.47, -4.47, -4.47, -4.82, 0.0, 4.92, 6.26, 5.81, 4.82, 4.6, 4.54, 5.21, 5.21, 5.58, 5.58, 5.15, 5.15, 4.74, 4.11, 3.79, 3.63, 3.91, 2.8, 2.6, 1.84, 0.88, 0.0, 0.0, 0.0, 0.0, 0.0, 0.0, 0.0, 0.0, 0.0, 0.0, 0.0, 0.0, 0.0, 0.0, 0.0, 0.0, 0.0, 0.0, 0.0, -1.08, -1.13, -1.4, -1.9, 0.0, 0.0, 0.0, 0.0, 2.53, 4.34, 5.36, 5.36, 5.81, 5.81, 6.26, 5.73, 4.98, 4.89, 7.26, 7.21, 6.79, 6.79, 6.36, 6.47, 6.04, 6.04, 5.57, 5.09, 4.89, 4.44, 5.26, 4.02, 3.13, 3.58, 4.47, 5.36, 6.17, 7.45, 6.16, 7.06, 6.9, 7.44, 7.44, 4.89, 1.2, -2.68, -2.68, 1.9, 4.0, 3.16, 0.0, -4.0, -4.92, -5.81, -4.98, -5.26, -2.68, 5.26, 6.66, 5.81, 5.29, 4.57, 3.93, 3.93, 4.6, 4.98, 4.54, 4.43, 4.43, 3.91, 3.91, 3.63, 3.07, 2.76, 2.6, 2.8, 1.84, 1.84, 1.08, 0.0, 0.0, 0.0, -1.4, -1.13, 0.0, 0.0, 0.0, 0.0, 0.0, 0.0, -0.95, -0.96, -0.88, -1.05, -0.88, 0.0, 0.0, -1.27, -2.53, -2.53, -2.8, -2.68, -2.24, -2.24, -1.9, -1.4, 1.2, 4.02, 4.92, 4.92, 4.92, 5.36, 5.36, 4.82, 4.6, 4.89, 7.4, 7.26, 6.79, 6.79, 6.51, 6.47, 6.04, 6.04, 6.04, 5.7, 4.92, 3.98, 5.26, 4.47, 4.47, 4.47, 4.92, 5.36, 5.73, 6.02, 6.45, 6.64, 6.4, 5.49, 6.18, 6.08, 3.35, 0.0, 0.0, 4.34, 5.51, 6.02, 5.6, 4.84, 0.0, 0.0, -3.58, -3.58, 4.0, 7.42, 7.15, 5.73, 4.98, 3.58, 3.35, 3.35, 4.4, 4.29, 4.11, 3.63, 3.35, 2.76, 2.76, 2.95, 1.99, 1.83, 1.7, 1.84, 1.84, 0.96, 0.98, 0.0, 0.0, -1.9, -1.4, -1.13, -1.08, 0.0, 0.0, 0.0, -1.65, -2.51, -2.6, -2.3, -2.68, -2.2, -2.0, 0.0, 0.0, -2.24, -2.24, -3.13, -3.58, -3.39, -4.02, -4.02, -3.39, 0.0, 3.13, 4.47, 4.47, 4.34, 4.47, 4.47, 4.47, 4.47, 4.29, 4.89, 7.4, 7.4, 6.94, 6.94, 6.94, 6.47, 6.47, 6.04, 6.04, 6.16, 5.36, 3.98, 4.38, 4.47, 4.92, 5.36, 4.92, 5.36, 5.81, 6.26, 7.5, 7.94, 7.94, 7.47, 6.16, 7.45, 7.01, 6.07, 6.07, 5.73, 5.73, 5.09, 5.51, 6.2, 7.01, 6.51, 5.21, 5.09, 5.94, 7.37, 7.15, 6.45, 5.2, 3.93, 4.0, 4.57, 4.98, 4.89, 3.91, 2.99, 1.99, 2.2, 2.0, 2.0, 1.83, 1.05, 1.05, 1.05, 0.96, 0.98, 0.0, 0.0, 0.0, -1.2, -1.13, -0.98, -1.08, 0.0, 0.89, 0.0, -1.99, -4.0, -4.02, -4.02, -3.35, -2.84, -2.48, -1.4, -2.24, -1.58, -2.54, -3.9, -4.34, -4.82, -5.36, -4.02, 0.0, 3.82, 4.57, 4.82, 4.47, 4.34, 4.34, 4.02, 3.58, 3.82, 4.6, 5.21, 7.4, 7.4, 6.94, 6.94, 6.94, 6.51, 6.47, 6.04, 6.04, 6.16, 5.81, 4.89, 4.34, 3.58, 4.47, 4.92, 5.36, 5.81, 5.81, 5.81, 6.71, 7.6, 9.39, 9.39, 8.49, 8.05, 8.05, 8.05, 7.94, 8.06, 5.51, 4.98, 4.82, 5.29, 5.29, 5.59, 5.58, 4.6, 4.57, 6.21, 7.1, 7.94, 6.7, 6.16, 5.6, 6.57, 6.18, 5.06, 4.29, 2.99, 1.83, 2.0, 1.27, 1.27, 1.08, 0.96, 0.88, 1.08, 1.08, 0.0, 0.0, 0.0, 0.0, 0.0, 0.0, 0.0, 0.0, 0.0, 0.96, 1.99, 2.24, -0.98, -3.16, -3.35, -3.39, -3.58, -3.39, -2.8, -2.68, -2.8, -3.39, -4.34, -4.98, -5.51, -5.36, 0.0, 5.26, 6.2, 5.73, 5.26, 5.36, 4.92, 4.02, 2.8, 3.13, 4.0, 4.89, 5.6, 7.4, 6.97, 6.94, 6.94, 6.51, 6.47, 6.47, 6.04, 6.04, 6.04, 6.23, 5.78, 4.82, 3.58, 4.47, 4.92, 5.36, 5.81, 5.36, 4.92, 4.92, 6.26, 7.15, 8.05, 8.49, 7.6, 7.6, 7.6, 7.47, 6.21, 7.06, 5.75, 5.81, 5.36, 5.36, 5.75, 5.6, 5.72, 5.81, 6.57, 7.63, 7.6, 7.5, 7.63, 7.6, 7.2, 7.44, 6.01, 4.29, 3.76, 2.6, 2.0, 1.13, 0.0, 0.0, 0.0, 0.0, 0.0, 0.0, 0.0, 0.0, 0.0, 0.0, 0.0, 0.88, 1.84, 0.88, 0.0, 0.0, 2.23, 4.02, 3.48, 1.83, 1.19, -0.0, -2.23, -3.39, -3.58, -3.13, -3.58, -4.02, -4.92, -5.94, -5.94, -2.8, 3.95, 5.73, 5.29, 4.82, 4.82, 4.47, 4.38, 4.0, 2.23, 3.39, 4.98, 5.21, 5.6, 7.4, 6.97, 6.94, 6.94, 6.51, 6.47, 6.04, 6.04, 6.04, 6.04, 6.04, 5.79, 6.26, 5.81, 5.36, 4.92, 5.36, 5.81, 5.36, 5.36, 4.47, 4.47, 6.2, 6.26, 6.26, 6.07, 6.26, 6.07, 6.4, 6.4, 7.15, 7.6, 7.15, 6.71, 5.29, 4.85, 4.57, 4.98, 7.01, 7.6, 7.01, 6.26, 6.26, 6.51, 6.64, 7.28, 6.79, 6.73, 6.11, 5.37, 3.91, 1.99, 0.0, 0.0, 0.0, 0.0, 0.0, 0.0, 0.0, 0.0, 0.0, 0.0, 0.0, 1.99, 2.6, 2.64, 1.72, 0.96, 0.0, 1.13, 3.58, 4.98, 4.89, 3.63, 0.96, -0.0, -3.16, -3.72, -3.82, -3.82, -4.02, -4.47, -4.92, -3.9, 1.74, 4.22, 3.95, 4.47, 4.47, 4.47, 3.9, 3.22, 3.22, 2.95, 4.47, 5.6, 5.6, 5.6, 7.51, 6.94, 6.94, 6.94, 6.51, 6.47, 6.04, 6.04, 5.99, 5.57, 5.81, 5.57, 7.94, 7.15, 6.26, 6.17, 6.64, 6.64, 6.26, 6.26, 6.71, 6.51, 5.94, 6.64, 6.17, 5.64, 5.36, 5.51, 6.07, 5.81, 6.51, 6.51, 6.26, 5.81, 4.98, 4.0, 5.36, 5.81, 6.26, 6.26, 6.07, 5.36, 5.36, 5.36, 4.84, 4.98, 6.08, 6.98, 6.32, 5.53, 4.14, 0.88, 0.0, 0.0, 0.0, 0.0, -1.79, -1.79, -1.79, -1.79, -1.58, 0.0, 2.0, 2.6, 1.72, 0.89, 0.89, 0.0, 0.0, 0.0, 0.0, 2.21, 2.95, 1.66, 0.98, 0.98, -0.0, -0.0, -0.98, -2.84, -4.0, -4.38, -4.15, -1.9, 2.24, 3.39, 2.97, 3.58, 3.13, 2.97, 2.53, 2.68, 2.68, 3.93, 5.36, 5.6, 5.6, 5.94, 7.07, 7.06, 6.94, 6.51, 6.47, 6.47, 6.04, 5.99, 5.57, 5.57, 5.31, 4.8, 4.6, 4.44, 6.26, 6.17, 6.17, 6.17, 6.51, 6.71, 7.01, 7.01, 7.01, 7.01, 6.51, 5.81, 5.81, 5.81, 5.81, 5.94, 5.21, 5.51, 5.36, 5.81, 5.64, 5.36, 5.36, 4.82, 5.36, 5.36, 3.9, 3.58, 3.13, 3.39, 3.35, 3.48, 2.99, 2.64, 3.6, 3.45, 2.83, 0.0, -2.8, -2.68, -2.4, -2.8, -2.21, -1.9, -2.4, -2.24, 0.0, 3.35, 5.01, 4.29, 1.63, 0.0, -0.89, 0.0, 0.0, 0.0, 0.0, -0.0, -0.0, -0.0, 0.87, 1.8, 3.48, 2.95, 0.88, -1.49, -3.58, -4.47, -3.84, -1.66, 0.0, 1.9, 2.0, 2.0, 2.0, 1.9, 1.74, 2.53, 3.58, 4.82, 5.29, 5.6, 5.94, 5.94, 7.07, 7.06, 6.61, 6.51, 6.47, 6.04, 6.04, 5.57, 5.57, 5.09, 5.09, 4.4, 3.88, 3.7, 5.4, 4.98, 4.4, 2.4, 2.17, 2.68, 4.47, 4.77, 4.77, 4.77, 5.36, 5.36, 5.36, 5.36, 5.81, 5.09, 4.84, 4.0, 4.47, 4.92, 4.92, 5.09, 5.09, 5.09, 3.9, 3.39, 3.13, 2.68, 2.68, 3.58, 4.0, 2.95, 2.99, 1.72, 0.83, 1.84, 2.64, 1.99, -2.4, -4.02, -4.34, -4.0, -3.16, -2.84, -2.4, 0.0, 4.38, 6.45, 6.8, 4.95, 2.67, 0.0, -2.76, -3.39, -2.68, -2.24, -2.24, -1.34, -1.0, -0.0, -0.0, 1.8, 2.68, 2.95, 2.0, -0.0, -3.16, -4.38, -4.38, -2.4, -0.88, 0.0, 0.0, 0.0, 0.0, 0.0, 1.2, 2.53, 4.0, 4.82, 4.82, 4.98, 5.51, 6.17, 7.07, 7.06, 6.61, 6.6, 6.47, 6.04, 5.99, 5.7, 5.7, 5.24, 4.66, 4.6, 4.11, 3.35, 2.79, 2.5, 1.9, 1.26, 1.2, 1.34, 1.79, 1.7, 2.12, 4.02, 4.47, 4.47, 4.02, 1.79, 3.82, 4.92, 4.66, 3.82, 3.82, 4.34, 4.98, 4.4, 3.6, 3.9, 3.39, 3.13, 2.68, 2.68, 3.13, 4.47, 4.66, 4.57, 5.21, 4.43, 4.43, 4.84, 5.51, 5.51, 4.02, 2.24, 0.0, 0.0, -1.2, -3.16, -0.0, 4.98, 8.05, 8.33, 7.35, 5.77, 4.95, 2.95, -3.13, -4.98, -4.0, -3.58, -3.13, -3.13, -3.47, -1.98, -0.0, 1.08, 1.08, 2.2, 1.8, -0.0, -2.23, -3.16, -4.47, -4.29, -2.53, -1.7, -1.7, -1.66, -0.87, 0.0, 0.0, 1.0, 2.6, 3.82, 4.34, 4.98, 4.98, 5.73, 7.06, 6.61, 6.61, 6.6, 6.16, 6.16, 5.7, 5.7, 5.24, 5.24, 4.77, 4.34, 3.7, 3.2, 2.68, 2.15, 1.86, 1.26, 0.95, 0.63, 0.89, 0.89, 0.95, 1.2, 1.6, 1.6, 1.26, 1.26, 1.9, 2.5, 3.6, 4.02, 3.82, 4.0, 4.0, 3.6, 3.39, 3.58, 3.58, 3.58, 3.58, 4.02, 4.34, 4.82, 5.81, 6.26, 6.71, 6.51, 6.71, 6.71, 5.81, 5.81, 6.2, 5.81, 6.26, 6.71, 5.51, 0.0, 0.98, 6.8, 8.94, 8.77, 7.35, 7.12, 7.85, 7.6, 4.34, -0.0, -3.35, -4.57, -4.98, -4.4, -2.23, -0.0, 0.88, 0.96, -0.0, -0.0, -0.0, -0.0, -0.0, -1.13, -2.21, -2.8, -3.58, -2.95, -3.79, -3.84, -3.22, -2.21, -1.26, 0.0, 1.0, 2.8, 3.58, 4.34, 4.82, 5.73, 7.06, 6.61, 6.6, 6.16, 6.16, 6.16, 5.7, 5.7, 5.24, 4.8, 4.77, 4.34, 3.87, 3.39, 2.91, 2.4, 1.86, 1.7, 1.2, 0.63, 0.89, 0.45, 0.0, 0.0, 0.0, 0.0, 0.0, 0.57, 0.71, 1.9, 2.5, 3.9, 4.47, 3.39, 3.58, 3.13, 2.68, 2.68, 3.13, 3.58, 4.02, 4.34, 5.09, 5.2, 5.36, 5.81, 4.92, 6.26, 6.26, 6.26, 6.26, 5.64, 5.51, 5.81, 5.36, 3.9, 4.84, 4.43, 5.36, 6.8, 8.33, 8.94, 9.29, 9.39, 8.94, 8.9, 8.46, 6.71, 4.47, -0.0, -0.0, 3.16, 5.58, 7.2, 6.6, 2.76, -0.0, -0.0, -0.0, -0.0, -0.0, -0.0, -0.0, -0.0, -2.24, -1.58, -3.13, -4.47, -3.58, -2.97, -2.4, -2.24, 0.0, 1.26, 2.24, 3.58, 4.02, 5.26, 6.68, 6.61, 6.6, 6.16, 6.16, 5.7, 5.7, 5.26, 5.24, 4.8, 4.44, 4.44, 3.98, 3.53, 3.07, 2.6, 2.17, 1.7, 1.2, 1.34, 0.89, 0.45, 0.0, 0.0, 0.0, 0.0, 0.0, 0.0, 0.57, 1.26, 1.86, 1.9, 4.0, 4.02, 4.02, 3.6, 3.6, 1.9, 3.13, 3.13, 3.82, 4.4, 4.0, 4.0, 4.0, 4.47, 4.92, 5.36, 5.36, 5.81, 5.36, 4.66, 4.92, 4.92, 4.47, 4.0, 3.16, 2.84, 5.2, 7.6, 6.45, 6.71, 7.15, 7.15, 8.05, 8.85, 8.85, 8.85, 7.47, 6.71, 8.0, 10.25, 10.7, 10.6, 9.35, 6.65, 3.16, -0.0, -1.13, -0.99, -0.0, -0.0, -0.0, -0.0, 2.4, 2.8, -0.0, -3.16, -3.47, -3.58, -3.58, -3.13, -1.79, 0.0, 0.0, 3.13, 4.34, 4.34, 6.68, 6.68, 6.16, 6.16, 6.16, 5.7, 5.7, 5.24, 5.24, 4.89, 4.44, 4.43, 3.98, 3.53, 3.07, 2.6, 2.17, 1.7, 1.34, 0.89, 0.89, 0.45, 0.0, 0.0, 0.0, 0.0, 0.0, 0.0, 0.0, 0.0, 0.8, 1.26, 1.24, 2.84, 3.6, 2.98, 2.23, 0.99, 2.68, 3.58, 3.39, 2.53, 2.84, 2.84, 3.6, 4.0, 4.92, 4.92, 4.92, 4.92, 4.92, 4.92, 4.92, 4.92, 4.66, 4.4, 4.0, 3.6, 5.09, 6.07, 4.47, 4.47, 4.47, 4.47, 5.36, 5.81, 4.47, 6.08, 7.89, 8.49, 9.06, 10.62, 10.25, 9.83, 9.39, 8.45, 5.36, -0.0, -2.23, -3.16, -2.0, -1.8, -0.98, -0.0, -0.0, 1.58, 3.2, -0.0, -3.39, -3.13, -3.58, -2.97, -1.79, 0.0, 0.0, 1.79, 2.97, 2.97, 6.68, 6.68, 6.23, 6.16, 5.7, 5.7, 5.26, 5.33, 4.89, 4.88, 4.44, 3.98, 3.98, 3.58, 3.13, 2.24, 2.6, 2.24, 1.34, 0.0, 0.0, 0.45, 0.0, 0.0, -0.95, -1.2, -0.95, -0.6, 0.0, 0.0, 0.0, 0.0, 0.57, 1.8, 2.98, 3.22, 3.16, 4.0, 3.58, 3.6, 4.0, 3.39, 3.6, 2.98, 4.0, 4.0, 4.24, 4.47, 4.47, 4.47, 4.47, 4.47, 4.47, 4.02, 3.6, 4.0, 4.0, 4.0, 4.0, 4.47, 4.02, 3.58, 3.2, 2.84, 3.16, 1.98, 2.2, 5.6, 9.39, 9.97, 9.89, 8.14, 8.45, 8.49, 8.01, 7.85, 6.94, 3.39, -0.0, -2.23, -2.0, -1.99, -1.05, -0.0, -0.0, -0.0, 2.68, -0.0, -1.58, -2.21, -2.84, -3.2, -2.68, -1.79, -2.24, -0.0, 1.58, 1.58, 6.68, 6.23, 6.23, 6.23, 5.78, 5.78, 5.34, 5.33, 4.89, 4.88, 4.44, 3.98, 4.02, 3.58, 3.13, 2.68, 3.13, 2.68, 1.34, 0.0, -0.0, 0.45, 0.63, 0.0, -1.2, -1.34, -1.34, -0.95, -0.95, -0.6, 0.0, 0.0, 0.0, 1.26, 1.9, 3.35, 4.34, 4.92, 4.92, 4.92, 5.09, 5.36, 4.66, 4.66, 4.24, 4.47, 4.02, 4.02, 4.02, 3.58, 3.58, 3.58, 3.58, 2.53, 2.53, 2.53, 3.6, 3.6, 3.6, 3.6, 2.53, 2.21, 0.0, 0.0, 0.0, 1.13, 0.98, 5.09, 7.94, 8.06, 7.01, 5.51, 6.17, 6.71, 7.1, 6.7, 7.12, 7.1, 5.81, 4.92, 3.93, 2.99, 1.98, -0.0, -0.0, -0.0, 2.23, 1.4, 1.4, -0.0, -2.48, -3.35, -3.13, -2.24, -1.58, -1.2, -0.0, -0.0, 6.68, 6.23, 6.23, 5.79, 5.78, 5.78, 5.33, 4.89, 4.89, 4.44, 4.44, 4.02, 4.02, 3.58, 3.58, 4.47, 3.13, 3.07, 1.49, 0.0, -0.0, 1.2, 1.79, 2.4, 1.79, 0.0, 0.0, 0.0, 0.0, 0.0, 0.0, 0.0, 0.0, 0.6, 0.8, 1.24, 2.23, 2.4, 3.9, 4.92, 4.34, 4.34, 5.09, 4.92, 4.47, 4.02, 3.58, 3.58, 3.58, 3.58, 3.58, 3.13, 3.13, 2.21, 2.21, 3.13, 3.13, 2.21, 0.0, 0.0, 0.0, 0.0, 0.0, 0.0, 0.0, 0.0, 0.0, 2.23, 3.9, 4.92, 4.4, 3.72, 4.57, 4.98, 5.2, 5.6, 6.45, 7.1, 7.55, 7.6, 6.57, 4.74, 2.6, 1.66, 0.96, 0.96, 0.96, 1.66, 3.35, 2.6, -0.0, -2.53, -3.39, -2.68, -1.9, -1.2, -0.0, -0.0, 6.23, 6.23, 6.23, 5.78, 5.78, 5.34, 5.33, 4.89, 4.89, 4.47, 4.47, 4.02, 3.58, 3.58, 3.58, 3.13, 3.13, 3.13, 3.9, 3.13, 2.97, 2.17, 2.24, 3.39, 3.39, 3.13, 2.68, 1.79, 1.2, 0.0, 0.0, 0.0, 0.0, 0.0, 0.0, 0.0, 0.57, 1.24, 1.86, 1.86, 2.24, 2.24, 2.24, 2.24, 2.4, 4.0, 3.58, 3.58, 3.58, 3.58, 3.58, 3.58, 3.58, 2.53, 2.4, 2.24, 0.0, 0.0, 0.0, 0.0, 0.0, 0.0, 0.0, 0.0, 0.0, 0.0, 1.13, 1.08, 1.99, 1.72, 1.84, 0.89, 0.85, 1.63, 2.76, 4.29, 4.98, 5.29, 6.26, 6.71, 6.45, 4.74, 1.98, 1.05, -0.0, -0.0, -0.0, 0.81, 3.58, 4.15, 3.82, -0.0, -1.6, -2.8, -1.58, -1.4, -0.0, -0.0, 6.23, 6.23, 5.79, 5.78, 5.78, 5.34, 5.36, 4.92, 4.92, 4.47, 4.47, 4.02, 3.58, 3.58, 3.13, 3.13, 2.68, 2.68, 3.13, 4.47, 4.47, 2.68, 2.24, 2.12, 1.86, 2.4, 2.23, 1.86, 1.26, 0.8, 0.8, 0.0, 0.0, 0.0, 0.0, 0.0, 0.0, 0.0, 0.57, 0.57, 0.8, 0.95, 1.2, 1.6, 2.4, 3.48, 3.6, 3.58, 3.13, 3.13, 3.58, 3.58, 3.58, 3.6, 3.6, 2.21, 0.0, -1.79, -2.68, 0.0, 0.0, 0.0, 0.0, 0.0, 1.58, 1.9, 1.4, 0.98, 1.99, 2.51, 1.75, 0.0, -1.68, -0.83, 0.98, 2.98, 4.02, 4.92, 5.36, 6.26, 6.71, 5.6, 2.99, -0.0, -0.0, -0.96, -0.0, 1.7, 4.01, 4.8, 4.98, 3.35, 1.4, -1.2, -1.0, -0.0, -0.0, -0.0, 6.26, 5.81, 5.81, 5.81, 5.36, 5.36, 4.92, 4.92, 4.92, 4.47, 4.47, 4.02, 3.58, 3.58, 3.13, 3.13, 2.68, 2.68, 2.68, 2.68, 2.63, 2.6, 2.12, 1.7, 1.26, 1.26, 1.58, 1.24, 1.24, 0.71, 0.71, 0.57, 0.57, 0.0, 0.0, 0.0, 0.0, 0.0, 0.0, 0.0, 0.0, 0.54, 0.71, 1.24, 1.9, 1.88, 2.2, 2.53, 3.13, 3.13, 3.13, 3.58, 3.58, 2.53, 2.84, 2.0, 0.0, -1.9, -3.58, -3.58, -2.4, -2.24, 0.0, 0.0, 1.79, 1.9, 1.4, 1.13, 2.0, 3.0, 2.66, 0.0, -2.8, -0.0, 2.98, 3.22, 3.16, 4.22, 4.66, 5.36, 6.26, 6.26, 5.51, 4.29, 2.0, 2.0, 3.22, 3.72, 3.47, 3.79, 3.83, 3.47, 2.4, -0.0, -1.0, -0.0, -0.0, -0.0, 6.26, 6.26, 5.81, 5.36, 5.36, 5.36, 4.92, 4.92, 4.47, 4.47, 4.47, 4.02, 4.02, 3.58, 3.58, 3.13, 3.13, 2.68, 2.68, 2.24, 2.17, 2.17, 2.12, 1.7, 1.6, 1.26, 1.26, 0.57, 0.71, 0.71, 0.71, 0.71, 0.71, 0.71, 0.71, 0.0, 0.0, 0.0, 0.0, 0.0, 0.0, 0.65, 0.65, 1.2, 1.2, 1.61, 1.55, 2.53, 3.58, 4.02, 3.58, 3.58, 3.13, 2.53, 2.53, 2.0, 1.27, 0.0, -4.02, -3.58, -3.13, -2.24, 0.0, 0.0, 0.0, 1.58, 0.0, 1.4, 1.27, 2.0, 4.84, 5.81, 0.96, 1.7, 1.7, 2.3, 2.68, 3.16, 4.15, 4.92, 5.36, 6.26, 6.71, 6.64, 5.94, 5.2, 4.89, 4.19, 1.98, -0.0, 1.8, 1.9, 2.0, -0.0, -1.0, -0.0, 1.2, 1.2, 5.81, 5.81, 5.81, 5.36, 5.36, 4.92, 4.92, 4.92, 4.47, 4.47, 4.02, 4.02, 4.02, 3.58, 3.58, 3.13, 3.13, 2.68, 2.68, 2.68, 2.17, 2.17, 2.12, 2.12, 1.7, 1.26, 1.26, 1.26, 0.57, 0.71, 0.71, 0.71, 0.54, 0.54, 0.54, 0.54, 0.0, 0.0, 0.0, 0.0, 0.0, 0.65, 0.65, 0.65, 1.2, 1.2, 3.16, 4.0, 4.47, 4.47, 4.0, 3.6, 2.53, 2.53, 2.53, 1.8, 2.23, 0.98, 0.0, -4.47, -3.58, -2.24, 0.0, 0.0, 0.0, 1.9, 1.2, 0.0, 0.0, 0.0, 2.0, 6.4, 0.88, -0.0, -0.0, 1.55, 1.55, 3.48, 4.46, 4.85, 5.36, 5.31, 5.75, 5.81, 6.2, 4.98, 4.11, 1.99, -0.0, -0.95, -0.0, 0.98, 0.85, -0.0, -0.0, -0.0, 1.2, 1.2, 5.81, 5.81, 5.36, 5.36, 5.36, 5.36, 4.92, 4.92, 4.47, 4.47, 4.02, 4.02, 4.02, 3.58, 3.58, 3.13, 3.13, 3.13, 2.68, 2.63, 2.6, 2.6, 2.17, 2.12, 2.12, 1.49, 1.26, 1.26, 1.26, 0.57, 0.71, 0.71, 0.71, 0.54, 0.54, 0.54, 0.54, 0.0, 0.0, 0.0, 0.0, 0.54, 0.54, 0.71, 0.71, 0.71, 1.24, 1.9, 2.4, 1.86, 1.9, 3.48, 3.6, 2.84, 2.53, 2.53, 1.8, 2.23, 2.2, 0.0, 0.0, -1.9, -0.0, 0.0, 2.24, 1.2, 1.4, 0.0, 0.0, 0.0, 2.0, 4.47, 1.84, -1.98, -0.96, -0.0, 0.79, 2.23, 4.46, 4.6, 5.34, 5.59, 5.31, 5.36, 5.81, 4.57, 3.48, 0.98, -0.96, -1.7, -0.0, -0.0, 0.79, -0.0, -0.0, -0.0, 1.9, 1.9, 5.36, 5.36, 5.36, 5.36, 5.36, 4.92, 4.92, 4.47, 4.47, 4.47, 4.02, 4.02, 4.02, 3.58, 3.58, 3.53, 3.09, 3.07, 2.63, 2.63, 2.6, 2.6, 2.6, 2.17, 1.86, 1.86, 1.26, 1.26, 1.26, 0.57, 0.57, 0.71, 0.71, 0.71, 0.54, 0.54, 0.54, 0.54, 0.0, 0.54, 0.54, 0.71, 0.71, 0.71, 0.71, 0.57, 0.71, 1.24, 0.99, 0.8, 0.8, 1.24, 3.16, 4.4, 3.16, 1.8, 2.53, 1.8, 1.55, 3.79, 2.84, 0.0, -0.0, 0.0, 2.24, 1.2, 1.13, 1.27, 0.0, 0.0, 0.98, 5.09, 3.9, -0.0, -1.98, -0.95, -0.0, 1.83, 3.22, 4.89, 5.58, 5.43, 5.59, 5.75, 5.75, 5.73, 4.34, 2.8, -0.0, 0.99, 1.99, 0.78, -0.0, -0.0, -0.0, -0.0, 1.58, 1.58, 5.36, 5.36, 5.36, 5.36, 4.92, 4.92, 4.92, 4.92, 4.47, 4.47, 4.02, 4.02, 4.02, 3.54, 3.53, 3.53, 3.09, 3.07, 3.07, 2.63, 2.63, 2.6, 2.6, 2.6, 2.0, 1.86, 1.86, 1.58, 1.26, 0.99, 0.57, 0.71, 0.71, 0.71, 0.71, 0.0, 0.0, 0.0, 0.0, 0.0, 0.54, 0.71, 0.71, 0.71, 0.57, 0.57, 0.57, 0.57, 0.8, 0.6, 0.6, 0.6, 1.26, 1.9, 3.16, 2.23, 2.84, 1.6, 2.23, 2.2, 2.98, 1.9, 0.0, 0.0, 0.0, 1.2, 1.13, 0.98, 0.0, 0.0, 1.27, 2.53, 4.34, 4.47, 3.39, 1.99, 0.89, -0.0, 1.99, 3.47, 4.58, 5.82, 5.82, 6.0, 5.86, 6.26, 6.2, 4.47, 4.34, 4.98, 4.11, 2.29, 0.96, -0.0, -0.0, -0.0, 1.79, 1.79, 5.36, 5.36, 5.36, 4.92, 4.92, 4.92, 4.92, 4.47, 4.47, 4.44, 3.98, 3.98, 3.98, 3.54, 3.53, 3.53, 3.09, 3.07, 3.07, 2.63, 2.63, 2.6, 2.6, 2.6, 2.4, 1.86, 1.86, 1.86, 1.86, 1.24, 1.24, 1.24, 0.71, 0.71, 0.71, 0.0, 0.0, 0.0, 0.0, 0.0, 0.0, 0.71, 0.54, 0.0, 0.0, -0.6, -0.6, 0.0, 0.8, 0.6, 0.6, 0.6, 0.6, 0.8, 1.9, 3.16, 3.16, 1.8, 1.13, 1.08, 1.19, 2.23, 2.68, 2.24, 1.79, 0.0, 0.0, 0.0, 0.0, 0.0, 1.08, 1.13, 3.2, 4.92, 6.26, 6.64, 4.98, -0.0, -0.0, 1.84, 3.55, 4.12, 5.05, 5.46, 5.75, 5.77, 6.26, 6.2, 5.6, 6.0, 4.89, 2.6, 0.96, -0.0, -0.0, 1.58, 2.0, 2.0, 5.36, 5.36, 4.92, 4.92, 4.89, 4.88, 4.44, 4.44, 4.44, 4.44, 3.98, 3.98, 3.98, 3.54, 3.53, 3.53, 3.09, 3.07, 3.07, 2.63, 2.63, 2.6, 2.6, 2.6, 2.4, 2.4, 1.86, 1.86, 1.58, 1.58, 1.24, 1.24, 1.24, 0.71, 0.71, 0.71, 0.0, 0.0, 0.0, 0.0, 0.0, 0.0, 0.0, 0.0, 0.0, -0.95, -1.34, -0.45, 0.0, 0.0, 0.0, 0.0, 0.0, 0.63, 0.95, 1.58, 3.16, 3.16, 0.98, 1.08, 1.08, 2.23, 3.39, 3.58, 2.68, 1.27, 0.0, -0.96, -1.83, -1.08, 0.0, 2.23, 2.68, 3.35, 4.98, 5.94, 6.71, 4.0, -0.0, -0.0, 1.84, 3.45, 4.75, 5.01, 6.07, 6.0, 6.4, 6.21, 5.58, 5.6, 5.6, 3.63, 2.53, 0.88, 1.98, 2.98, 4.38, 4.38, 5.33, 5.33, 4.89, 4.89, 4.89, 4.88, 4.44, 4.44, 4.44, 4.44, 4.43, 3.98, 3.98, 3.54, 3.53, 3.53, 3.09, 3.07, 3.07, 3.07, 2.63, 2.63, 2.6, 2.6, 2.6, 2.4, 2.4, 1.86, 1.26, 1.26, 1.26, 1.24, 1.24, 1.24, 0.71, 0.71, 0.0, 0.0, 0.0, 0.0, 0.0, 0.0, 0.0, 0.65, 0.61, 0.0, 0.0, -0.0, 0.0, 0.0, 0.0, 0.0, 0.0, 0.0, 0.0, 0.63, 1.26, 1.2, 2.2, 2.0, 2.0, 2.53, 3.39, 3.58, 2.21, 2.23, 2.0, 0.0, -3.58, -3.16, 0.0, 3.35, 3.13, 1.19, 2.99, 4.6, 5.73, 5.81, 2.53, -0.96, -0.0, 2.36, 4.1, 4.47, 4.74, 6.07, 6.07, 4.81, 4.19, 4.66, 4.66, 4.29, 2.68, 2.2, 3.16, 4.22, 5.59, 5.59, 4.89, 4.89, 4.89, 4.89, 4.88, 4.44, 4.44, 4.44, 4.44, 4.44, 3.98, 3.98, 3.98, 3.53, 3.53, 3.53, 3.09, 3.07, 3.07, 3.07, 2.63, 2.63, 2.6, 2.6, 2.6, 2.4, 2.4, 1.9, 0.99, 0.6, 1.2, 1.26, 1.24, 1.24, 0.71, 0.54, 0.71, 0.0, 0.0, 0.0, 0.0, 0.0, 0.0, 0.0, 0.53, 1.13, 2.68, 1.2, 0.89, 0.0, 0.0, 0.0, 0.0, 0.0, 0.0, 0.89, 0.89, 1.26, 1.2, 2.0, 2.23, 2.53, 3.39, 2.53, 1.98, 2.23, 2.0, 2.2, 0.0, -3.13, 2.24, 4.0, 3.82, 1.08, 1.72, 2.99, 4.98, 5.36, 4.34, -0.0, -0.88, -0.0, 2.32, 4.1, 4.12, 4.11, 4.0, 3.84, 3.58, 3.83, 4.66, 4.57, 3.58, 3.48, 4.22, 4.8, 6.02, 6.02, 4.89, 4.89, 4.89, 4.89, 4.88, 4.44, 4.44, 4.44, 4.44, 4.43, 3.98, 3.98, 3.98, 3.53, 3.53, 3.53, 3.09, 3.07, 3.07, 3.07, 2.63, 2.63, 2.6, 2.6, 2.6, 2.6, 2.4, 2.15, 2.53, 1.2, 1.2, 1.6, 1.24, 1.24, 0.71, 0.54, 0.54, 0.0, 0.0, 0.0, 0.0, 0.0, 0.0, 0.0, 0.0, 0.65, 1.58, 1.6, 0.63, 0.0, 0.0, 0.0, 0.0, 0.0, 0.89, 1.34, 1.34, 0.89, 1.2, 1.24, 2.23, 2.53, 2.21, 1.74, 1.27, 0.98, 1.08, 1.7, 2.0, 4.02, 3.58, 3.35, 3.79, 4.47, 1.84, 1.84, 2.0, 4.0, 4.0, 0.87, -1.66, -0.88, 0.76, 2.8, 3.47, 3.49, 3.72, 3.07, 3.16, 3.22, 4.15, 4.66, 4.66, 4.22, 4.22, 4.8, 5.86, 5.86, 4.89, 4.89, 4.89, 4.88, 4.88, 4.44, 4.44, 4.44, 4.43, 3.98, 3.98, 3.98, 3.98, 3.98, 3.53, 3.53, 3.09, 3.07, 3.07, 3.07, 2.63, 2.6, 2.6, 2.6, 2.6, 2.17, 2.0, 2.4, 2.15, 2.98, 1.7, 1.26, 1.26, 1.24, 0.71, 0.71, 0.54, 0.54, 0.0, 0.0, 0.0, 0.0, 0.0, 0.0, 0.0, 0.0, 0.71, 0.57, 0.0, 0.0, 0.0, 0.0, 0.0, 0.0, 0.0, 0.89, 0.95, 0.95, 0.89, 0.95, 1.24, 1.2, 1.6, 1.13, 0.98, 0.0, 0.0, 1.08, 1.7, 3.22, 3.93, 2.48, 1.08, 2.53, 2.84, 1.05, -0.0, 0.98, 1.6, 0.87, -0.87, -1.13, -0.0, 2.4, 3.08, 3.2, 3.14, 2.8, 3.35, 3.16, 3.16, 4.15, 4.66, 4.8, 5.34, 5.6, 6.28, 6.28, 4.8, 4.8, 4.8, 4.77, 4.77, 4.34, 4.34, 4.34, 4.3, 3.87, 3.98, 3.98, 3.98, 3.54, 3.53, 3.53, 3.09, 3.07, 3.07, 3.07, 2.63, 2.6, 2.6, 2.6, 2.17, 2.17, 2.17, 1.86, 1.86, 1.86, 1.86, 1.26, 1.26, 0.99, 0.71, 0.71, 0.71, 0.54, 0.0, 0.0, 0.0, 0.0, 0.0, 0.0, 0.0, 0.0, 0.0, 0.0, 0.0, 0.0, 0.0, 0.0, 0.0, 0.0, 0.0, 0.0, 0.63, 0.95, 0.63, 0.0, 1.8, 0.0, 0.0, 0.0, 0.0, 1.13, 1.13, 1.27, 1.7, 2.98, 2.95, 1.7, 0.0, 1.13, 3.39, 2.8, -0.0, -0.98, -0.0, -0.0, -0.0, -0.0, 0.85, 2.41, 3.07, 3.16, 2.53, 2.5, 3.35, 2.84, 2.23, 3.16, 3.83, 4.8, 5.34, 5.75, 6.28, 6.28, 4.8, 4.8, 4.8, 4.77, 4.34, 4.34, 4.34, 4.3, 3.87, 3.87, 3.87, 3.98, 3.98, 3.53, 3.53, 3.53, 3.09, 3.07, 3.07, 2.63, 2.63, 2.6, 2.6, 2.6, 2.17, 2.17, 2.12, 1.86, 1.86, 1.86, 1.86, 1.26, 1.26, 0.99, 0.57, 0.71, 0.71, 0.71, 0.0, 0.0, 0.0, 0.0, 0.0, 0.0, 0.0, 0.0, 0.0, 0.0, 0.0, 0.0, 0.0, 0.0, 0.0, 0.0, 0.0, 0.0, 0.0, -0.0, -0.0, 0.0, 0.8, 0.0, 0.0, 0.0, 0.0, 1.8, 2.23, 2.23, 1.8, 2.0, 2.0, 1.7, 0.0, 0.0, 1.08, 1.98, 0.0, -2.23, -0.96, -0.0, -0.0, -0.0, 0.85, 1.98, 2.84, 2.53, 2.5, 3.35, 3.35, 2.23, 2.23, 1.8, 3.16, 3.84, 4.84, 5.43, 6.28, 6.28, 4.8, 4.8, 4.8, 4.77, 4.34, 4.34, 4.34, 4.3, 3.87, 3.87, 3.87, 3.87, 3.98, 3.53, 3.53, 3.53, 3.09, 3.07, 3.07, 2.63, 2.63, 2.6, 2.6, 2.17, 2.17, 2.17, 2.12, 2.12, 1.86, 1.49, 1.26, 1.26, 1.26, 1.26, 0.57, 0.57, 0.57, 0.71, 0.0, 0.0, 0.0, 0.0, 0.0, -0.71, -0.71, -0.57, 0.0, 0.0, 0.0, 0.0, 0.0, 0.0, 0.0, 0.0, 0.0, 0.0, 0.0, 0.0, -0.0, 0.0, 0.0, 0.0, 0.0, 0.0, 0.0, 0.0, 1.27, 0.98, 0.98, 0.98, 1.7, 1.08, 1.52, 0.0, 0.0, 1.9, 2.24, -0.0, -0.0, -0.0, -0.0, -0.0, 0.85, 2.21, 3.2, 3.6, 4.0, 3.6, 2.98, 2.53, 2.23, 2.0, 2.0, 3.48, 4.19, 5.09, 6.0, 6.0, 4.8, 4.8, 4.77, 4.77, 4.34, 4.34, 4.34, 4.3, 3.87, 3.87, 3.87, 3.87, 3.87, 3.53, 3.53, 3.53, 3.07, 3.07, 3.07, 2.63, 2.63, 2.6, 2.6, 2.17, 2.17, 2.12, 2.12, 1.7, 1.7, 1.49, 1.26, 1.26, 1.26, 1.26, 0.57, 0.57, 0.57, 0.0, 0.0, 0.0, 0.0, 0.0, 0.0, -1.13, -1.26, -0.8, -0.57, 0.0, 0.0, -0.71, -0.57, 0.0, 0.0, 0.0, 0.0, 0.0, 0.0, 0.0, 0.0, 0.0, 0.0, 0.0, 0.0, 0.0, 1.4, 0.0, 0.0, 0.0, 0.0, 0.0, 0.98, 1.08, 0.0, 0.0, -0.0, 0.99, 2.23, 2.95, 0.96, -0.0, -0.0, -0.0, 0.85, 2.6, 3.9, 4.38, 3.6, 2.98, 2.98, 2.53, 2.23, 2.0, 1.83, 2.95, 3.63, 4.81, 5.46, 5.46, 4.8, 4.8, 4.77, 4.77, 4.34, 4.34, 4.3, 4.3, 3.87, 3.87, 3.87, 3.87, 3.87, 3.53, 3.53, 3.53, 3.09, 3.07, 3.07, 2.63, 2.63, 2.6, 2.6, 2.17, 2.17, 2.12, 1.7, 1.7, 1.7, 1.6, 1.26, 1.26, 1.26, 1.26, 0.8, 0.57, 0.57, 0.0, 0.0, 0.0, 0.0, 0.0, 0.0, 0.0, -0.6, -1.2, -1.26, -0.71, -0.71, -0.71, -0.71, -0.57, -0.57, 0.0, 0.0, 0.0, 0.0, 0.0, 0.0, 0.0, 0.0, 0.0, 0.0, 0.0, 0.0, 0.0, 0.0, 0.0, 1.13, 1.13, 0.98, 0.0, 0.0, 0.0, -0.0, -0.0, 1.83, 1.99, 0.81, -0.0, -0.79, -0.0, 1.74, 3.2, 3.9, 3.47, 3.2, 2.98, 2.98, 2.53, 1.98, 2.0, 1.83, 2.95, 3.35, 3.72, 4.74, 5.46, 4.8, 4.8, 4.77, 4.77, 4.34, 4.34, 4.3, 4.3, 3.87, 3.87, 3.87, 3.87, 3.87, 3.39, 3.53, 3.53, 3.09, 3.07, 3.07, 2.63, 2.63, 2.6, 2.17, 2.17, 2.17, 2.12, 1.7, 1.7, 1.6, 1.6, 1.6, 1.26, 1.26, 0.8, 0.8, 0.57, 0.57, 0.0, 0.0, 0.0, 0.0, 0.0, 0.0, 0.0, 0.0, -1.2, -1.2, -1.26, -0.57, -0.71, -0.71, -0.71, -0.71, -0.57, -0.57, -0.57, 0.0, 0.0, 0.0, 0.0, 0.0, 0.0, 0.0, 0.0, 0.0, 0.0, 0.0, 1.13, 1.13, 1.13, 0.0, 0.0, 0.0, 2.84, -0.0, -0.96, -0.0, -0.0, -0.0, -0.0, -0.0, -0.0, 1.8, 3.6, 3.47, 2.97, 2.6, 2.98, 2.53, 2.53, 1.13, 1.08, 0.96, 2.2, 3.22, 3.63, 4.43, 4.74, 4.8, 4.8, 4.77, 4.77, 4.34, 4.34, 4.3, 4.3, 3.87, 3.87, 3.87, 3.87, 3.82, 3.39, 3.53, 3.53, 3.09, 3.07, 2.63, 2.63, 2.6, 2.6, 2.17, 2.17, 2.17, 2.12, 1.7, 1.7, 1.6, 1.2, 1.2, 1.2, 0.95, 0.6, 0.8, 0.57, 0.57, 0.0, 0.0, 0.0, 0.0, 0.0, 0.0, 0.0, 0.0, 0.0, -0.89, -0.63, -0.8, -0.57, -0.71, -0.71, -0.71, -0.71, -0.71, -0.57, -0.57, -0.71, -0.54, -0.71, 0.0, 0.0, 0.0, 0.0, 0.0, 0.0, 0.0, 1.8, 1.13, 0.98, 0.0, 0.0, 0.0, 1.7, 2.53, -0.0, -0.0, -0.88, -0.96, -2.0, -0.87, 0.98, 2.68, 3.16, 3.2, 2.97, 2.98, 2.53, 2.53, 1.13, 1.13, -0.0, 0.96, 0.88, 2.2, 2.76, 3.91, 3.91, 4.8, 4.8, 4.77, 4.77, 4.34, 4.34, 4.3, 4.3, 3.87, 3.87, 3.87, 3.87, 3.82, 3.39, 3.39, 3.53, 3.09, 3.07, 3.07, 2.63, 2.6, 2.6, 2.17, 2.17, 2.12, 2.12, 1.7, 1.7, 1.6, 1.2, 1.2, 1.2, 0.95, 0.6, 0.6, 0.8, 0.0, 0.0, 0.0, 0.0, 0.0, 0.0, -0.54, -0.65, 0.0, 0.0, 0.0, 0.0, -0.6, -0.57, -0.71, -0.71, -0.71, -0.71, -0.71, -0.71, -0.71, -0.71, -0.54, -0.65, -0.54, 0.0, 0.0, 0.0, 0.0, 0.0, 0.0, 0.0, 0.0, 0.0, 0.0, 0.0, 0.0, 0.88, 3.22, 4.47, 1.27, -0.96, -3.22, -3.16, -0.85, 1.98, 3.07, 3.48, 2.84, 3.35, 2.98, 2.23, 1.98, 1.13, 1.13, -0.0, -0.0, -0.0, 2.95, 3.63, 3.63, 3.63, 4.8, 4.8, 4.77, 4.77, 4.34, 4.34, 4.3, 4.3, 3.87, 3.87, 3.87, 3.87, 3.82, 3.39, 3.39, 3.53, 3.09, 3.07, 3.07, 2.63, 2.6, 2.6, 2.17, 2.17, 2.12, 1.7, 1.7, 1.7, 1.6, 1.2, 1.2, 0.95, 0.95, 0.95, 0.6, 0.6, 0.0, 0.0, 0.0, 0.0, 0.0, 0.0, -0.54, -0.54, -0.65, 0.0, 0.0, 0.0, -0.8, -0.57, -0.71, -0.71, -0.71, -0.71, -0.71, -0.71, -0.71, -0.71, -0.54, -0.65, -0.65, -0.54, 0.0, 2.0, 0.0, 0.0, 0.0, 0.0, 0.0, 0.0, 0.0, 0.0, 0.0, 0.96, 2.2, 3.48, 3.35, 2.24, -1.4, -1.9, -0.0, 2.53, 2.76, 2.53, 2.68, 2.41, 2.84, 2.23, 0.98, 1.27, 1.13, 1.13, -0.0, 1.08, 2.0, 3.22, 3.22, 3.22, 4.77, 4.77, 4.77, 4.77, 4.34, 4.34, 4.34, 4.3, 3.87, 3.87, 3.87, 3.87, 3.82, 3.39, 3.39, 3.53, 3.09, 3.07, 3.07, 2.63, 2.6, 2.6, 2.17, 2.17, 2.12, 1.7, 1.7, 1.7, 1.6, 1.2, 1.2, 0.95, 0.63, 0.63, 0.6, 0.0, 0.0, 0.0, 0.0, 0.0, 0.0, -0.57, -0.71, -0.54, -0.65, -0.65, -0.54, -0.71, -0.57, -0.57, -0.71, -0.71, -0.71, -0.71, -1.24, -1.24, -1.24, -1.24, -0.54, -0.65, -1.2, -0.71, 0.0, 0.71, 1.8, 0.0, 0.0, 0.0, 0.0, 0.0, 0.0, 0.0, 1.08, 0.96, 2.2, 3.22, 2.99, 2.16, 2.0, 3.16, 3.16, 2.68, 1.66, 2.2, 2.53, 2.3, 1.8, 2.0, 1.08, 0.98, -0.0, -0.0, -0.0, -0.0, 2.0, 2.95, 2.95, 2.95, 4.77, 4.77, 4.77, 4.77, 4.34, 4.34, 4.34, 4.3, 4.3, 3.87, 3.87, 3.87, 3.82, 3.39, 3.39, 3.53, 3.09, 3.07, 3.07, 2.63, 2.68, 2.17, 2.17, 2.17, 2.12, 1.7, 1.7, 1.7, 1.6, 1.2, 1.2, 0.95, 0.95, 0.63, 0.0, 0.0, 0.0, 0.0, 0.0, 0.0, 0.0, -0.57, -0.71, -0.54, -0.54, -0.54, -0.71, -0.71, -0.71, -0.71, -0.71, -1.24, -1.24, -1.24, -1.24, -1.24, -1.24, -1.24, -1.0, -1.2, -1.2, -0.71, 0.0, 0.6, 0.71, 0.0, 0.0, 0.0, 0.0, 0.0, 0.0, 0.98, 1.08, 2.2, 2.2, 2.2, 1.99, 1.98, 2.64, 3.33, 3.55, 2.53, 1.27, 1.55, 1.66, 1.66, 1.66, 0.88, 1.08, -0.0, -0.0, -0.0, -0.0, -0.0, 2.0, 3.48, 3.48, 3.48, 4.77, 4.77, 4.77, 4.77, 4.77, 4.34, 4.34, 4.3, 4.3, 3.87, 3.87, 3.87, 3.82, 3.39, 3.39, 3.53, 3.09, 3.07, 3.07, 2.63, 2.68, 2.24, 2.17, 2.12, 2.12, 1.7, 1.7, 1.6, 1.6, 1.2, 1.2, 0.95, 0.95, 0.63, 0.0, 0.0, 0.0, 0.0, 0.0, 0.0, 0.0, -0.57, -0.71, -0.71, -1.0, -1.24, -1.24, -1.24, -1.24, -1.24, -1.24, -1.24, -1.24, -1.24, -1.24, -1.24, -1.24, -1.24, -1.24, -1.2, -1.2, -0.71, 0.0, 0.0, 0.0, 0.0, 0.0, 0.0, 0.0, 0.0, 0.0, 0.98, 1.08, 1.08, 1.08, 1.08, 0.96, 0.96, 1.98, 2.47, 1.72, 0.0, -0.0, 0.81, 1.66, 0.88, 0.73, -0.0, -0.0, -0.0, -0.0, -1.13, -0.0, -0.0, 1.8, 3.16, 3.16, 3.16, 4.6, 4.6, 4.6, 4.6, 4.6, 4.34, 4.34, 4.3, 4.3, 3.87, 3.87, 3.87, 3.82, 3.39, 3.39, 3.39, 3.09, 3.07, 3.07, 2.63, 2.63, 2.24, 2.17, 2.12, 1.7, 1.7, 1.7, 1.6, 1.6, 1.2, 1.2, 0.95, 0.95, 0.95, 0.0, 0.0, 0.0, 0.0, 0.0, 0.0, -0.57, -0.71, -0.71, -0.71, -1.24, -1.24, -1.24, -1.24, -1.24, -1.24, -1.24, -1.24, -1.24, -1.24, -1.24, -1.24, -1.24, -1.24, -1.24, -1.2, -1.2, -1.24, -0.6, 0.0, 0.0, 0.0, 0.0, 0.0, 0.0, 0.0, 0.0, 0.98, 0.0, 0.0, 0.0, 1.08, 0.88, 0.96, 1.84, 1.84, 0.88, 0.0, -2.2, -0.0, 0.88, 0.98, -0.0, -0.0, -0.0, -0.0, -0.0, -0.0, -0.0, -0.0, 1.98, 3.16, 3.16, 3.16, 4.6, 4.6, 4.6, 4.6, 4.6, 4.6, 4.19, 4.3, 4.3, 3.87, 3.87, 3.87, 3.82, 3.39, 3.39, 3.39, 3.09, 3.07, 3.07, 2.63, 2.6, 2.24, 2.24, 2.12, 1.7, 1.7, 1.7, 1.6, 1.6, 1.2, 1.2, 0.95, 0.95, 0.95, 0.0, 0.0, 0.0, 0.0, 0.0, 0.0, -0.57, -0.57, -0.71, -0.71, -1.24, -1.24, -1.24, -1.24, -1.24, -1.24, -1.24, -1.24, -1.24, -1.24, -1.24, -1.24, -1.24, -1.24, -1.24, -1.24, -1.0, -1.24, -0.57, -0.57, 0.0, 0.0, -1.2, -1.9, -1.4, -1.13, -1.13, 0.0, 0.0, 0.0, 1.08, 1.08, 1.08, 0.96, 1.05, 1.05, 0.88, 0.0, -2.84, -1.05, 0.88, 0.87, -0.0, -0.96, -0.81, -0.98, -0.0, -0.0, -0.0, -0.0, 1.98, 3.16, 3.16, 3.16, 4.6, 4.6, 4.6, 4.6, 4.6, 4.6, 4.19, 4.11, 4.3, 3.87, 3.87, 3.87, 3.82, 3.39, 3.39, 3.39, 3.09, 3.07, 3.07, 2.63, 2.6, 2.24, 2.24, 2.24, 1.7, 1.7, 1.7, 1.6, 1.2, 1.2, 1.2, 0.95, 0.95, 0.63, 0.0, 0.0, 0.0, 0.0, 0.0, 0.0, -0.57, -0.57, -0.71, -0.71, -1.24, -1.24, -1.24, -1.24, -1.24, -1.24, -1.24, -1.24, -1.24, -1.24, -1.24, -1.24, -1.24, -1.24, -1.24, -1.24, -1.24, -1.24, -1.24, -1.24, -0.54, 0.0, -0.99, -1.4, -2.21, -2.53, -2.53, -2.21, -0.99, 0.98, 1.08, 2.0, 1.08, 1.08, 0.96, 0.96, 1.08, 0.0, -1.58, -0.0, 0.96, -0.0, 0.0, -1.0, -1.66, -1.83, -1.98, -1.0, -0.0, -0.0, 2.53, 2.84, 2.84, 2.84, 4.6, 4.6, 4.6, 4.6, 4.6, 4.6, 4.19, 4.11, 4.3, 3.87, 3.87, 3.87, 3.82, 3.39, 3.39, 3.39, 2.97, 3.07, 3.07, 2.63, 2.6, 2.6, 2.24, 2.24, 1.79, 1.7, 1.7, 1.6, 1.2, 1.2, 0.95, 0.95, 0.95, 0.63, 0.0, 0.0, 0.0, 0.0, 0.0, 0.0, -0.57, -0.57, -0.71, -0.71, -1.24, -1.24, -1.24, -1.24, -1.24, -1.24, -1.24, -1.24, -1.24, -1.24, -1.24, -1.24, -1.24, -1.24, -1.24, -1.24, -1.24, -1.24, -1.24, -1.24, -1.2, -0.61, -0.98, -1.13, -1.6, -1.4, -1.4, -1.4, -2.21, -1.2, 0.98, 1.08, 1.08, 0.96, 0.0, 0.0, 0.98, 0.0, 1.58, 2.2, 0.99, -0.0, 0.0, 0.0, -1.58, -3.07, -3.48, -2.98, -2.21, -0.0, 1.6, 3.35, 3.35, 3.35, 4.8, 4.8, 4.6, 4.6, 4.6, 4.6, 4.19, 4.11, 4.3, 3.87, 3.87, 3.87, 3.82, 3.39, 3.39, 3.39, 2.97, 3.07, 3.07, 2.63, 2.6, 2.6, 2.17, 2.24, 1.79, 1.7, 1.7, 1.6, 1.2, 1.2, 0.95, 0.95, 0.95, 0.0, 0.0, 0.0, 0.0, 0.0, 0.0, 0.0, -0.57, -0.57, -0.71, -1.24, -1.24, -1.24, -1.24, -1.49, -1.49, -1.49, -1.49, -1.49, -1.24, -1.24, -1.24, -1.24, -1.24, -1.24, -1.24, -1.24, -1.24, -1.24, -1.49, -1.9, -1.61, -1.16, -0.88, 0.0, 0.0, 0.0, 0.0, 0.0, 0.0, 0.0, 0.0, 0.0, 0.0, 0.0, 0.0, 0.0, 0.0, 0.0, 1.4, 1.83, 0.87, -0.0, 0.0, 0.0, 0.0, -2.84, -4.11, -3.48, -2.53, -0.0, 1.13, 3.35, 3.35, 3.35, 4.8, 4.8, 4.6, 4.6, 4.6, 4.19, 4.11, 4.11, 4.3, 3.87, 3.87, 3.87, 3.82, 3.39, 3.39, 3.39, 3.39, 3.07, 3.07, 2.63, 2.6, 2.6, 2.17, 2.12, 1.7, 1.7, 1.7, 1.6, 1.2, 1.2, 0.95, 0.95, 0.95, 0.0, 0.0, 0.0, 0.0, 0.0, 0.0, 0.0, -0.57, -0.57, -0.71, -1.24, -1.24, -1.24, -1.49, -1.49, -1.49, -1.49, -1.9, -1.9, -1.9, -1.24, -1.24, -1.24, -1.24, -1.24, -1.24, -1.24, -1.24, -1.24, -1.9, -1.9, -1.88, -1.84, -1.13, 0.0, 0.0, 0.0, 0.96, 2.0, 1.98, 1.2, 0.0, 0.0, 0.0, 0.0, 0.0, 0.0, 0.0, 0.0, -0.0, -0.0, -0.0, -0.0, -0.0, 0.0, 0.0, -2.98, -4.11, -3.48, -2.23, -0.0, 1.13, 2.84, 2.84, 2.84, 4.8, 4.8, 4.4, 4.6, 4.6, 4.19, 4.11, 4.11, 4.3, 3.87, 3.87, 3.87, 3.82, 3.39, 3.39, 3.39, 3.39, 3.07, 3.07, 3.07, 2.6, 2.6, 2.17, 2.12, 1.7, 1.7, 1.6, 1.6, 1.2, 1.2, 0.95, 0.95, 0.95, 0.0, 0.0, 0.0, 0.0, 0.0, 0.0, 0.0, -0.57, -0.57, -1.24, -1.24, -1.24, -1.24, -1.49, -1.49, -1.9, -1.9, -1.9, -1.9, -1.9, -1.9, -1.58, -1.24, -1.24, -1.24, -1.24, -1.24, -1.24, -1.24, -1.9, -1.61, -1.88, -1.61, -1.33, 0.0, 0.0, 0.0, 0.96, 1.08, 1.8, 1.13, 0.0, 0.0, 0.0, 0.0, 1.08, 0.98, 1.27, 2.53, -0.0, -0.0, -0.0, -0.0, -0.0, -0.0, -0.0, -1.74, -3.35, -2.68, -1.27, -0.0, 1.13, 2.23, 2.23, 2.23, 4.4, 4.4, 4.4, 4.6, 4.6, 4.11, 4.11, 4.11, 4.3, 3.87, 3.87, 3.82, 3.82, 3.39, 3.39, 3.39, 3.09, 3.07, 3.07, 3.07, 2.6, 2.6, 2.17, 2.12, 1.7, 1.7, 1.6, 1.6, 1.2, 1.2, 0.95, 0.95, 0.95, 0.0, 0.0, 0.0, 0.0, 0.0, 0.0, -0.8, -0.57, -0.57, -1.24, -1.24, -1.24, -1.24, -1.9, -1.9, -1.9, -1.9, -1.9, -1.9, -1.9, -1.9, -1.9, -1.9, -1.9, -1.9, -1.9, -1.9, -1.9, -1.9, -1.9, -1.61, -1.88, -1.61, -1.16, -0.61, 0.0, 0.0, 0.0, 0.0, 0.98, 0.0, 0.0, 0.0, 0.0, 0.0, 0.96, 2.0, 3.16, 3.82, 2.23, -0.0, -0.0, -0.0, -0.0, -0.0, -0.0, -0.99, -2.68, -2.68, -1.98, -0.0, 1.13, 2.23, 2.23, 2.23, 4.4, 4.4, 4.4, 4.4, 4.52, 4.11, 4.11, 4.11, 4.11, 3.87, 3.87, 3.82, 3.39, 3.39, 3.39, 3.53, 3.07, 3.07, 3.07, 3.07, 2.6, 2.6, 2.17, 2.12, 1.7, 1.7, 1.6, 1.6, 1.2, 1.2, 0.95, 0.95, 0.95, 0.0, 0.0, 0.0, 0.0, 0.0, 0.0, -0.8, -0.57, -0.71, -1.24, -1.24, -1.24, -1.9, -1.9, -1.9, -1.9, -1.9, -1.9, -1.9, -1.9, -1.9, -1.9, -1.9, -1.9, -1.9, -1.9, -1.9, -1.9, -1.9, -1.9, -1.61, -1.88, -1.88, -1.2, -0.65, -0.59, 0.0, 0.0, 0.0, 0.0, 0.0, 0.0, 0.0, 0.0, 0.0, 0.96, 2.2, 2.95, 4.4, 3.9, 0.96, -0.0, -0.96, -0.87, -0.0, -0.0, -0.99, -1.98, -2.84, -1.98, -0.0, 0.99, 2.98, 2.98, 2.98, 4.4, 4.4, 4.4, 4.4, 4.52, 4.11, 4.11, 4.11, 4.11, 3.87, 3.87, 3.82, 3.39, 3.39, 3.39, 3.53, 3.07, 3.07, 3.07, 2.63, 2.6, 2.6, 2.17, 2.12, 1.7, 1.7, 1.6, 1.6, 1.2, 1.2, 0.95, 0.95, 0.95, 0.0, 0.0, 0.0, 0.0, 0.0, -0.6, -0.8, -0.57, -0.71, -1.24, -1.24, -1.24, -1.9, -1.9, -1.9, -1.9, -1.9, -1.9, -1.9, -1.9, -1.9, -1.9, -1.9, -1.9, -1.9, -1.9, -1.9, -1.9, -1.9, -1.9, -1.61, -1.88, -1.61, -1.24, -0.71, -0.53, 0.0, 0.0, 0.0, 0.0, 0.0, 0.0, 0.0, 0.0, 0.0, 1.08, 1.99, 1.99, 2.95, 4.02, 2.2, -0.0, -1.05, -2.2, -1.98, -1.74, -2.21, -2.97, -2.6, -1.74, -0.0, 1.4, 2.53, 2.53, 2.53, 4.4, 4.4, 4.4, 4.4, 4.27, 4.11, 4.11, 4.11, 3.7, 3.7, 3.82, 3.82, 3.39, 3.39, 3.39, 2.97, 3.07, 3.07, 3.07, 2.63, 2.6, 2.6, 2.17, 2.12, 1.7, 1.7, 1.6, 1.6, 1.2, 0.95, 0.95, 0.95, 0.0, 0.0, 0.0, 0.0, 0.0, 0.0, -0.6, -0.8, -0.8, -1.24, -1.24, -1.24, -1.9, -1.9, -1.9, -1.9, -1.9, -1.9, -1.9, -1.9, -1.9, -1.9, -1.9, -1.9, -1.9, -1.9, -1.9, -1.9, -1.9, -1.9, -1.9, -1.61, -1.88, -1.61, -1.24, -0.57, -0.54, 0.0, 0.57, 1.05, 1.08, 0.98, 1.08, 1.08, 1.08, 0.98, 1.08, 0.96, 0.88, 2.2, 3.58, 2.2, -0.0, -1.99, -2.76, -2.68, -3.6, -3.47, -2.97, -2.4, -1.9, -0.0, 1.9, 2.8, 2.8, 2.8, 4.4, 4.4, 4.4, 4.4, 4.27, 4.11, 4.11, 4.11, 3.7, 3.6, 3.82, 3.39, 3.39, 3.39, 3.39, 2.91, 2.91, 3.07, 3.07, 2.63, 2.6, 2.6, 2.17, 2.12, 1.7, 1.7, 1.6, 1.6, 0.95, 0.6, 0.6, 0.6, 0.0, 0.0, 0.0, 0.0, 0.0, -0.6, -0.6, -0.8, -0.8, -1.24, -1.24, -1.24, -1.9, -1.9, -1.9, -1.9, -1.9, -1.9, -1.9, -1.9, -1.9, -1.9, -1.9, -1.9, -1.9, -1.9, -1.9, -1.9, -1.9, -1.9, -1.9, -1.61, -1.88, -1.9, -1.26, -0.6, 0.0, 0.0, 0.0, 0.96, 2.0, 1.55, 1.08, 1.08, 1.08, 1.08, 0.0, 0.0, 0.0, 1.08, 3.58, 2.0, -0.0, -1.99, -2.76, -4.29, -4.15, -4.38, -4.02, -3.13, -2.0, -1.26, 0.0, 2.24, 2.24, 2.24, 4.4, 4.4, 4.4, 4.4, 4.27, 4.11, 4.11, 4.11, 3.7, 3.6, 3.6, 3.39, 3.39, 3.39, 3.32, 2.91, 2.91, 2.91, 2.91, 2.63, 2.6, 2.6, 2.17, 2.12, 1.7, 1.7, 1.6, 1.26, 1.26, 0.6, 0.6, 0.6, 0.0, 0.0, 0.0, 0.0, 0.0, -0.6, -0.6, -0.8, -1.26, -1.24, -1.24, -1.24, -1.9, -1.9, -1.9, -1.9, -1.9, -1.9, -2.15, -2.15, -1.9, -1.9, -1.9, -1.9, -1.9, -1.9, -1.9, -1.9, -1.9, -1.9, -1.9, -1.9, -1.61, -1.9, -1.58, -0.6, -0.6, 0.0, 0.0, 0.61, 1.16, 0.0, 0.0, 0.0, 1.08, 1.08, 0.0, 0.0, 0.0, 0.96, 2.98, 3.35, -0.0, -1.99, -3.79, -4.6, -5.51, -5.73, -5.36, -4.47, -3.13, -2.24, -1.34, 0.0, 0.0, 0.0, 4.4, 4.4, 4.4, 4.4, 4.27, 4.11, 4.11, 4.11, 3.7, 3.6, 3.6, 3.39, 3.39, 3.39, 3.32, 2.91, 2.91, 2.91, 2.91, 2.63, 2.6, 2.6, 2.17, 2.12, 1.7, 1.7, 1.6, 1.26, 1.26, 0.6, 0.6, 0.6, 0.0, 0.0, 0.0, 0.0, 0.0, -0.6, -0.6, -0.8, -1.26, -1.24, -1.24, -1.24, -1.9, -1.9, -1.9, -1.9, -1.9, -1.9, -2.15, -2.15, -1.9, -1.9, -1.9, -1.9, -1.9, -1.9, -1.9, -1.9, -1.9, -1.9, -1.9, -1.9, -1.61, -1.9, -1.58, -0.6, -0.6, 0.0, 0.0, 0.61, 1.16, 0.0, 0.0, 0.0, 1.08, 1.08, 0.0, 0.0, 0.0, 0.0, 2.23, 3.58, 0.98, -0.96, -2.95, -4.29, -5.51, -5.73, -5.81, -5.36, -4.47, -3.58, -2.68, 0.0, 0.0, 0.0]}]